Time,TemperatureF,DewpointF,PressureIn,WindDirection,WindDirectionDegrees,WindSpeedMPH,WindSpeedGustMPH,Humidity,HourlyPrecipIn,Conditions,Clouds,dailyrainin,SoftwareType,DateUTC
2013-11-09 00:00:00,43.1,33.0,29.31,South,181,5.0,14.0,67,0.00,,,0.00,WUHU216DAVISVP2,2013-11-09 05:00:00,
2013-11-09 00:01:00,43.0,32.9,29.31,South,183,0.0,14.0,67,0.00,,,0.00,WUHU216DAVISVP2,2013-11-09 05:01:00,
2013-11-09 00:06:00,43.0,32.9,29.31,SSW,199,0.0,14.0,67,0.00,,,0.00,WUHU216DAVISVP2,2013-11-09 05:06:00,
2013-11-09 00:07:00,43.0,32.9,29.31,SW,220,1.0,14.0,67,0.00,,,0.00,WUHU216DAVISVP2,2013-11-09 05:07:00,
2013-11-09 00:11:00,43.0,32.9,29.31,SSW,206,0.0,12.0,67,0.00,,,0.00,WUHU216DAVISVP2,2013-11-09 05:11:00,
2013-11-09 00:12:00,43.0,32.9,29.31,SSW,194,4.0,12.0,67,0.00,,,0.00,WUHU216DAVISVP2,2013-11-09 05:12:00,
2013-11-09 00:16:00,43.0,32.9,29.31,South,189,5.0,12.0,67,0.00,,,0.00,WUHU216DAVISVP2,2013-11-09 05:16:00,
2013-11-09 00:17:00,43.0,32.9,29.31,SSW,208,4.0,12.0,67,0.00,,,0.00,WUHU216DAVISVP2,2013-11-09 05:17:00,
2013-11-09 00:21:00,43.1,33.0,29.31,South,176,6.0,12.0,67,0.00,,,0.00,WUHU216DAVISVP2,2013-11-09 05:21:00,
2013-11-09 00:22:00,43.1,33.0,29.31,South,176,2.0,12.0,67,0.00,,,0.00,WUHU216DAVISVP2,2013-11-09 05:22:00,
2013-11-09 00:23:00,43.1,33.0,29.30,South,169,0.0,12.0,67,0.00,,,0.00,WUHU216DAVISVP2,2013-11-09 05:23:00,
2013-11-09 00:26:00,43.0,32.9,29.30,South,181,4.0,12.0,67,0.00,,,0.00,WUHU216DAVISVP2,2013-11-09 05:26:00,
2013-11-09 00:27:00,43.0,32.9,29.30,South,177,10.0,12.0,67,0.00,,,0.00,WUHU216DAVISVP2,2013-11-09 05:27:00,
2013-11-09 00:28:00,43.0,32.9,29.30,South,188,2.0,12.0,67,0.00,,,0.00,WUHU216DAVISVP2,2013-11-09 05:28:00,
2013-11-09 00:29:00,43.0,32.9,29.30,SSW,195,4.0,12.0,67,0.00,,,0.00,WUHU216DAVISVP2,2013-11-09 05:29:00,
2013-11-09 00:31:00,43.0,32.9,29.30,SSE,168,8.0,12.0,67,0.00,,,0.00,WUHU216DAVISVP2,2013-11-09 05:31:00,
2013-11-09 00:32:00,43.0,32.9,29.30,SSW,193,1.0,12.0,67,0.00,,,0.00,WUHU216DAVISVP2,2013-11-09 05:32:00,
2013-11-09 00:33:00,43.0,32.9,29.30,South,184,10.0,12.0,67,0.00,,,0.00,WUHU216DAVISVP2,2013-11-09 05:33:00,
2013-11-09 00:34:00,43.0,32.9,29.30,WSW,237,0.0,12.0,67,0.00,,,0.00,WUHU216DAVISVP2,2013-11-09 05:34:00,
2013-11-09 00:36:00,42.9,32.8,29.30,SSW,212,2.0,12.0,67,0.00,,,0.00,WUHU216DAVISVP2,2013-11-09 05:36:00,
2013-11-09 00:37:00,42.9,32.8,29.30,SSW,192,1.0,11.0,67,0.00,,,0.00,WUHU216DAVISVP2,2013-11-09 05:37:00,
2013-11-09 00:38:00,42.9,32.8,29.30,WSW,244,5.0,11.0,67,0.00,,,0.00,WUHU216DAVISVP2,2013-11-09 05:38:00,
2013-11-09 00:40:00,42.9,32.8,29.30,South,184,2.0,11.0,67,0.00,,,0.00,WUHU216DAVISVP2,2013-11-09 05:40:00,
2013-11-09 00:41:00,42.9,32.8,29.29,SW,223,3.0,11.0,67,0.00,,,0.00,WUHU216DAVISVP2,2013-11-09 05:41:00,
2013-11-09 00:42:00,42.9,32.8,29.30,SW,228,4.0,11.0,67,0.00,,,0.00,WUHU216DAVISVP2,2013-11-09 05:42:00,
2013-11-09 00:43:00,42.9,32.8,29.30,SSW,196,0.0,11.0,67,0.00,,,0.00,WUHU216DAVISVP2,2013-11-09 05:43:00,
2013-11-09 00:44:00,42.9,32.8,29.29,SW,216,4.0,11.0,67,0.00,,,0.00,WUHU216DAVISVP2,2013-11-09 05:44:00,
2013-11-09 00:46:00,42.9,32.8,29.29,SW,225,5.0,11.0,67,0.00,,,0.00,WUHU216DAVISVP2,2013-11-09 05:46:00,
2013-11-09 00:47:00,42.9,32.8,29.29,South,184,7.0,10.0,67,0.00,,,0.00,WUHU216DAVISVP2,2013-11-09 05:47:00,
2013-11-09 00:48:00,42.9,32.8,29.29,South,179,0.0,10.0,67,0.00,,,0.00,WUHU216DAVISVP2,2013-11-09 05:48:00,
2013-11-09 00:49:00,42.9,32.8,29.29,SW,215,0.0,10.0,67,0.00,,,0.00,WUHU216DAVISVP2,2013-11-09 05:49:00,
2013-11-09 00:51:00,43.0,32.9,29.29,South,179,2.0,10.0,67,0.00,,,0.00,WUHU216DAVISVP2,2013-11-09 05:51:00,
2013-11-09 00:52:00,43.0,32.9,29.29,South,189,9.0,10.0,67,0.00,,,0.00,WUHU216DAVISVP2,2013-11-09 05:52:00,
2013-11-09 00:53:00,43.0,32.9,29.29,South,185,0.0,10.0,67,0.00,,,0.00,WUHU216DAVISVP2,2013-11-09 05:53:00,
2013-11-09 00:54:00,43.0,32.9,29.29,South,183,6.0,10.0,67,0.00,,,0.00,WUHU216DAVISVP2,2013-11-09 05:54:00,
2013-11-09 00:55:00,43.0,32.9,29.29,SW,216,4.0,10.0,67,0.00,,,0.00,WUHU216DAVISVP2,2013-11-09 05:55:00,
2013-11-09 00:56:00,43.0,32.5,29.29,South,173,5.0,10.0,66,0.00,,,0.00,WUHU216DAVISVP2,2013-11-09 05:56:00,
2013-11-09 00:57:00,43.0,32.5,29.29,SSW,207,0.0,10.0,66,0.00,,,0.00,WUHU216DAVISVP2,2013-11-09 05:57:00,
2013-11-09 00:58:00,43.0,32.5,29.29,South,185,5.0,12.0,66,0.00,,,0.00,WUHU216DAVISVP2,2013-11-09 05:58:00,
2013-11-09 00:59:00,43.1,32.6,29.29,South,187,6.0,12.0,66,0.00,,,0.00,WUHU216DAVISVP2,2013-11-09 05:59:00,
2013-11-09 01:00:00,43.0,32.5,29.29,SSW,205,0.0,12.0,66,0.00,,,0.00,WUHU216DAVISVP2,2013-11-09 06:00:00,
2013-11-09 01:01:00,43.1,32.6,29.29,SW,228,2.0,12.0,66,0.00,,,0.00,WUHU216DAVISVP2,2013-11-09 06:01:00,
2013-11-09 01:02:00,43.0,32.5,29.29,SW,226,0.0,12.0,66,0.00,,,0.00,WUHU216DAVISVP2,2013-11-09 06:02:00,
2013-11-09 01:03:00,43.1,32.6,29.29,SSW,202,2.0,12.0,66,0.00,,,0.00,WUHU216DAVISVP2,2013-11-09 06:03:00,
2013-11-09 01:05:00,43.1,32.6,29.29,South,179,0.0,12.0,66,0.00,,,0.00,WUHU216DAVISVP2,2013-11-09 06:05:00,
2013-11-09 01:07:00,43.1,32.6,29.29,SW,218,1.0,12.0,66,0.00,,,0.00,WUHU216DAVISVP2,2013-11-09 06:07:00,
2013-11-09 01:08:00,43.1,32.6,29.28,SW,215,1.0,12.0,66,0.00,,,0.00,WUHU216DAVISVP2,2013-11-09 06:08:00,
2013-11-09 01:10:00,43.1,32.6,29.28,SSW,200,0.0,12.0,66,0.00,,,0.00,WUHU216DAVISVP2,2013-11-09 06:10:00,
2013-11-09 01:12:00,43.0,32.5,29.28,SW,218,2.0,12.0,66,0.00,,,0.00,WUHU216DAVISVP2,2013-11-09 06:12:00,
2013-11-09 01:13:00,43.1,32.6,29.28,SSW,197,5.0,12.0,66,0.00,,,0.00,WUHU216DAVISVP2,2013-11-09 06:13:00,
2013-11-09 01:15:00,43.1,32.6,29.28,SSW,194,1.0,12.0,66,0.00,,,0.00,WUHU216DAVISVP2,2013-11-09 06:15:00,
2013-11-09 01:16:00,43.1,32.6,29.28,South,188,8.0,12.0,66,0.00,,,0.00,WUHU216DAVISVP2,2013-11-09 06:16:00,
2013-11-09 01:17:00,43.1,32.6,29.28,South,185,5.0,12.0,66,0.00,,,0.00,WUHU216DAVISVP2,2013-11-09 06:17:00,
2013-11-09 01:18:00,43.1,32.6,29.28,South,183,10.0,12.0,66,0.00,,,0.00,WUHU216DAVISVP2,2013-11-09 06:18:00,
2013-11-09 01:20:00,43.1,32.6,29.28,South,179,5.0,12.0,66,0.00,,,0.00,WUHU216DAVISVP2,2013-11-09 06:20:00,
2013-11-09 01:21:00,43.1,32.6,29.28,South,180,6.0,12.0,66,0.00,,,0.00,WUHU216DAVISVP2,2013-11-09 06:21:00,
2013-11-09 01:22:00,43.1,32.6,29.27,SSW,193,1.0,12.0,66,0.00,,,0.00,WUHU216DAVISVP2,2013-11-09 06:22:00,
2013-11-09 01:23:00,43.1,32.6,29.27,South,176,6.0,12.0,66,0.00,,,0.00,WUHU216DAVISVP2,2013-11-09 06:23:00,
2013-11-09 01:25:00,43.1,32.6,29.27,SSW,204,1.0,11.0,66,0.00,,,0.00,WUHU216DAVISVP2,2013-11-09 06:25:00,
2013-11-09 01:26:00,43.1,32.6,29.27,South,177,11.0,11.0,66,0.00,,,0.00,WUHU216DAVISVP2,2013-11-09 06:26:00,
2013-11-09 01:27:00,43.1,32.6,29.27,South,179,6.0,11.0,66,0.00,,,0.00,WUHU216DAVISVP2,2013-11-09 06:27:00,
2013-11-09 01:28:00,43.1,32.6,29.27,SW,235,3.0,11.0,66,0.00,,,0.00,WUHU216DAVISVP2,2013-11-09 06:28:00,
2013-11-09 01:29:00,43.1,32.6,29.27,SW,225,5.0,11.0,66,0.00,,,0.00,WUHU216DAVISVP2,2013-11-09 06:29:00,
2013-11-09 01:30:00,43.1,32.6,29.27,South,187,4.0,11.0,66,0.00,,,0.00,WUHU216DAVISVP2,2013-11-09 06:30:00,
2013-11-09 01:32:00,43.2,32.7,29.27,SW,227,8.0,11.0,66,0.00,,,0.00,WUHU216DAVISVP2,2013-11-09 06:32:00,
2013-11-09 01:33:00,43.3,32.8,29.27,SSW,199,6.0,11.0,66,0.00,,,0.00,WUHU216DAVISVP2,2013-11-09 06:33:00,
2013-11-09 01:34:00,43.3,32.8,29.27,SSW,196,1.0,11.0,66,0.00,,,0.00,WUHU216DAVISVP2,2013-11-09 06:34:00,
2013-11-09 01:36:00,43.3,32.8,29.27,SW,228,3.0,11.0,66,0.00,,,0.00,WUHU216DAVISVP2,2013-11-09 06:36:00,
2013-11-09 01:37:00,43.3,32.8,29.26,SSW,192,3.0,11.0,66,0.00,,,0.00,WUHU216DAVISVP2,2013-11-09 06:37:00,
2013-11-09 01:38:00,43.3,32.4,29.26,SW,230,4.0,11.0,65,0.00,,,0.00,WUHU216DAVISVP2,2013-11-09 06:38:00,
2013-11-09 01:39:00,43.3,32.4,29.26,SSW,204,1.0,11.0,65,0.00,,,0.00,WUHU216DAVISVP2,2013-11-09 06:39:00,
2013-11-09 01:41:00,43.4,32.5,29.26,SW,224,1.0,11.0,65,0.00,,,0.00,WUHU216DAVISVP2,2013-11-09 06:41:00,
2013-11-09 01:42:00,43.3,32.4,29.26,South,173,6.0,11.0,65,0.00,,,0.00,WUHU216DAVISVP2,2013-11-09 06:42:00,
2013-11-09 01:43:00,43.3,32.4,29.26,South,180,7.0,11.0,65,0.00,,,0.00,WUHU216DAVISVP2,2013-11-09 06:43:00,
2013-11-09 01:44:00,43.3,32.4,29.26,SW,221,7.0,11.0,65,0.00,,,0.00,WUHU216DAVISVP2,2013-11-09 06:44:00,
2013-11-09 01:45:00,43.4,32.5,29.26,SSW,203,8.0,11.0,65,0.00,,,0.00,WUHU216DAVISVP2,2013-11-09 06:45:00,
2013-11-09 01:46:00,43.4,32.5,29.26,South,186,11.0,11.0,65,0.00,,,0.00,WUHU216DAVISVP2,2013-11-09 06:46:00,
2013-11-09 01:47:00,43.4,32.5,29.26,WSW,238,1.0,12.0,65,0.00,,,0.00,WUHU216DAVISVP2,2013-11-09 06:47:00,
2013-11-09 01:48:00,43.4,32.5,29.26,South,183,7.0,12.0,65,0.00,,,0.00,WUHU216DAVISVP2,2013-11-09 06:48:00,
2013-11-09 01:49:00,43.4,32.5,29.26,SSW,193,8.0,12.0,65,0.00,,,0.00,WUHU216DAVISVP2,2013-11-09 06:49:00,
2013-11-09 01:50:00,43.5,32.6,29.26,SSW,197,4.0,12.0,65,0.00,,,0.00,WUHU216DAVISVP2,2013-11-09 06:50:00,
2013-11-09 01:51:00,43.5,32.6,29.26,WSW,239,5.0,12.0,65,0.00,,,0.00,WUHU216DAVISVP2,2013-11-09 06:51:00,
2013-11-09 01:52:00,43.5,32.5,29.26,SW,215,0.0,12.0,65,0.00,,,0.00,WUHU216DAVISVP2,2013-11-09 06:52:00,
2013-11-09 01:53:00,43.5,32.5,29.26,South,182,8.0,12.0,65,0.00,,,0.00,WUHU216DAVISVP2,2013-11-09 06:53:00,
2013-11-09 01:55:00,43.5,32.5,29.26,SSW,204,4.0,14.0,65,0.00,,,0.00,WUHU216DAVISVP2,2013-11-09 06:55:00,
2013-11-09 01:56:00,43.6,32.6,29.26,SW,223,2.0,14.0,65,0.00,,,0.00,WUHU216DAVISVP2,2013-11-09 06:56:00,
2013-11-09 01:57:00,43.6,32.6,29.26,SW,224,18.0,18.0,65,0.00,,,0.00,WUHU216DAVISVP2,2013-11-09 06:57:00,
2013-11-09 01:58:00,43.6,32.6,29.26,SSW,201,4.0,18.0,65,0.00,,,0.00,WUHU216DAVISVP2,2013-11-09 06:58:00,
2013-11-09 02:00:00,43.6,32.2,29.26,SSW,198,6.0,21.0,64,0.00,,,0.00,WUHU216DAVISVP2,2013-11-09 07:00:00,
2013-11-09 02:01:00,43.7,32.3,29.26,South,178,9.0,21.0,64,0.00,,,0.00,WUHU216DAVISVP2,2013-11-09 07:01:00,
2013-11-09 02:02:00,43.7,32.3,29.26,SSW,195,8.0,21.0,64,0.00,,,0.00,WUHU216DAVISVP2,2013-11-09 07:02:00,
2013-11-09 02:03:00,43.7,32.3,29.26,SSW,206,10.0,21.0,64,0.00,,,0.00,WUHU216DAVISVP2,2013-11-09 07:03:00,
2013-11-09 02:05:00,43.7,32.3,29.26,SSW,212,7.0,21.0,64,0.00,,,0.00,WUHU216DAVISVP2,2013-11-09 07:05:00,
2013-11-09 02:07:00,43.7,32.3,29.25,SW,215,2.0,21.0,64,0.00,,,0.00,WUHU216DAVISVP2,2013-11-09 07:07:00,
2013-11-09 02:08:00,43.6,32.2,29.25,SW,222,1.0,21.0,64,0.00,,,0.00,WUHU216DAVISVP2,2013-11-09 07:08:00,
2013-11-09 02:10:00,43.6,32.2,29.25,SSW,205,11.0,21.0,64,0.00,,,0.00,WUHU216DAVISVP2,2013-11-09 07:10:00,
2013-11-09 02:12:00,43.6,32.2,29.26,SW,216,4.0,21.0,64,0.00,,,0.00,WUHU216DAVISVP2,2013-11-09 07:12:00,
2013-11-09 02:13:00,43.6,32.2,29.25,South,190,6.0,21.0,64,0.00,,,0.00,WUHU216DAVISVP2,2013-11-09 07:13:00,
2013-11-09 02:15:00,43.5,32.5,29.26,SW,228,4.0,21.0,65,0.00,,,0.00,WUHU216DAVISVP2,2013-11-09 07:15:00,
2013-11-09 02:17:00,43.5,32.1,29.26,South,191,5.0,21.0,64,0.00,,,0.00,WUHU216DAVISVP2,2013-11-09 07:17:00,
2013-11-09 02:18:00,43.6,32.6,29.25,SSW,213,6.0,18.0,65,0.00,,,0.00,WUHU216DAVISVP2,2013-11-09 07:18:00,
2013-11-09 02:19:00,43.6,32.6,29.25,SW,223,2.0,18.0,65,0.00,,,0.00,WUHU216DAVISVP2,2013-11-09 07:19:00,
2013-11-09 02:21:00,43.6,32.6,29.25,SSW,193,8.0,18.0,65,0.00,,,0.00,WUHU216DAVISVP2,2013-11-09 07:21:00,
2013-11-09 02:22:00,43.5,32.5,29.25,SW,229,6.0,18.0,65,0.00,,,0.00,WUHU216DAVISVP2,2013-11-09 07:22:00,
2013-11-09 02:23:00,43.5,32.6,29.25,WSW,237,8.0,18.0,65,0.00,,,0.00,WUHU216DAVISVP2,2013-11-09 07:23:00,
2013-11-09 02:24:00,43.5,32.6,29.25,SSW,193,8.0,18.0,65,0.00,,,0.00,WUHU216DAVISVP2,2013-11-09 07:24:00,
2013-11-09 02:26:00,43.5,32.2,29.25,SSW,192,7.0,18.0,64,0.00,,,0.00,WUHU216DAVISVP2,2013-11-09 07:26:00,
2013-11-09 02:27:00,43.5,32.2,29.25,SW,224,6.0,18.0,64,0.00,,,0.00,WUHU216DAVISVP2,2013-11-09 07:27:00,
2013-11-09 02:28:00,43.5,32.6,29.25,WSW,238,4.0,18.0,65,0.00,,,0.00,WUHU216DAVISVP2,2013-11-09 07:28:00,
2013-11-09 02:29:00,43.5,32.6,29.25,WSW,242,5.0,18.0,65,0.00,,,0.00,WUHU216DAVISVP2,2013-11-09 07:29:00,
2013-11-09 02:31:00,43.5,32.6,29.25,SW,226,6.0,18.0,65,0.00,,,0.00,WUHU216DAVISVP2,2013-11-09 07:31:00,
2013-11-09 02:32:00,43.5,32.6,29.25,SSW,210,2.0,18.0,65,0.00,,,0.00,WUHU216DAVISVP2,2013-11-09 07:32:00,
2013-11-09 02:33:00,43.4,32.5,29.25,SW,226,5.0,18.0,65,0.00,,,0.00,WUHU216DAVISVP2,2013-11-09 07:33:00,
2013-11-09 02:34:00,43.4,32.5,29.25,SSW,210,6.0,18.0,65,0.00,,,0.00,WUHU216DAVISVP2,2013-11-09 07:34:00,
2013-11-09 02:35:00,43.4,32.5,29.25,SW,218,4.0,18.0,65,0.00,,,0.00,WUHU216DAVISVP2,2013-11-09 07:35:00,
2013-11-09 02:36:00,43.4,32.5,29.25,SW,236,8.0,18.0,65,0.00,,,0.00,WUHU216DAVISVP2,2013-11-09 07:36:00,
2013-11-09 02:37:00,43.4,32.5,29.25,SSW,212,1.0,18.0,65,0.00,,,0.00,WUHU216DAVISVP2,2013-11-09 07:37:00,
2013-11-09 02:38:00,43.4,32.5,29.25,SW,218,2.0,18.0,65,0.00,,,0.00,WUHU216DAVISVP2,2013-11-09 07:38:00,
2013-11-09 02:39:00,43.4,32.1,29.25,South,187,8.0,18.0,64,0.00,,,0.00,WUHU216DAVISVP2,2013-11-09 07:39:00,
2013-11-09 02:40:00,43.4,32.1,29.25,SSW,212,2.0,18.0,64,0.00,,,0.00,WUHU216DAVISVP2,2013-11-09 07:40:00,
2013-11-09 02:41:00,43.5,32.2,29.25,SW,226,2.0,18.0,64,0.00,,,0.00,WUHU216DAVISVP2,2013-11-09 07:41:00,
2013-11-09 02:43:00,43.5,32.2,29.25,SW,216,6.0,14.0,64,0.00,,,0.00,WUHU216DAVISVP2,2013-11-09 07:43:00,
2013-11-09 02:44:00,43.5,32.2,29.25,SSW,210,4.0,14.0,64,0.00,,,0.00,WUHU216DAVISVP2,2013-11-09 07:44:00,
2013-11-09 02:45:00,43.5,32.2,29.25,SSW,199,5.0,14.0,64,0.00,,,0.00,WUHU216DAVISVP2,2013-11-09 07:45:00,
2013-11-09 02:46:00,43.5,32.2,29.25,WSW,241,8.0,18.0,64,0.00,,,0.00,WUHU216DAVISVP2,2013-11-09 07:46:00,
2013-11-09 02:48:00,43.5,32.2,29.25,SSW,213,0.0,18.0,64,0.00,,,0.00,WUHU216DAVISVP2,2013-11-09 07:48:00,
2013-11-09 02:50:00,43.5,32.2,29.25,South,191,9.0,18.0,64,0.00,,,0.00,WUHU216DAVISVP2,2013-11-09 07:50:00,
2013-11-09 02:51:00,43.5,32.2,29.25,WSW,237,5.0,18.0,64,0.00,,,0.00,WUHU216DAVISVP2,2013-11-09 07:51:00,
2013-11-09 02:52:00,43.5,32.2,29.25,South,187,8.0,20.0,64,0.00,,,0.00,WUHU216DAVISVP2,2013-11-09 07:52:00,
2013-11-09 02:53:00,43.5,32.2,29.24,South,190,6.0,20.0,64,0.00,,,0.00,WUHU216DAVISVP2,2013-11-09 07:53:00,
2013-11-09 02:55:00,43.5,32.2,29.25,SSW,199,5.0,20.0,64,0.00,,,0.00,WUHU216DAVISVP2,2013-11-09 07:55:00,
2013-11-09 02:56:00,43.5,32.2,29.25,WSW,241,16.0,20.0,64,0.00,,,0.00,WUHU216DAVISVP2,2013-11-09 07:56:00,
2013-11-09 02:57:00,43.5,32.2,29.25,SSW,201,7.0,20.0,64,0.00,,,0.00,WUHU216DAVISVP2,2013-11-09 07:57:00,
2013-11-09 02:58:00,43.5,32.2,29.25,SSW,203,5.0,20.0,64,0.00,,,0.00,WUHU216DAVISVP2,2013-11-09 07:58:00,
2013-11-09 03:00:00,43.5,32.2,29.24,SSW,213,2.0,20.0,64,0.00,,,0.00,WUHU216DAVISVP2,2013-11-09 08:00:00,
2013-11-09 03:01:00,43.5,32.2,29.25,South,185,7.0,20.0,64,0.00,,,0.00,WUHU216DAVISVP2,2013-11-09 08:01:00,
2013-11-09 03:02:00,43.5,32.2,29.25,SSW,200,5.0,20.0,64,0.00,,,0.00,WUHU216DAVISVP2,2013-11-09 08:02:00,
2013-11-09 03:03:00,43.5,32.2,29.24,SSW,198,5.0,20.0,64,0.00,,,0.00,WUHU216DAVISVP2,2013-11-09 08:03:00,
2013-11-09 03:04:00,43.5,32.2,29.24,South,181,11.0,20.0,64,0.00,,,0.00,WUHU216DAVISVP2,2013-11-09 08:04:00,
2013-11-09 03:05:00,43.4,32.1,29.24,SSW,204,5.0,20.0,64,0.00,,,0.00,WUHU216DAVISVP2,2013-11-09 08:05:00,
2013-11-09 03:07:00,43.4,32.1,29.24,SW,224,4.0,20.0,64,0.00,,,0.00,WUHU216DAVISVP2,2013-11-09 08:07:00,
2013-11-09 03:09:00,43.4,32.1,29.24,SW,224,3.0,20.0,64,0.00,,,0.00,WUHU216DAVISVP2,2013-11-09 08:09:00,
2013-11-09 03:10:00,43.4,32.1,29.24,South,185,9.0,16.0,64,0.00,,,0.00,WUHU216DAVISVP2,2013-11-09 08:10:00,
2013-11-09 03:12:00,43.3,31.9,29.24,SSW,206,5.0,16.0,64,0.00,,,0.00,WUHU216DAVISVP2,2013-11-09 08:12:00,
2013-11-09 03:13:00,43.3,31.9,29.24,SW,227,8.0,16.0,64,0.00,,,0.00,WUHU216DAVISVP2,2013-11-09 08:13:00,
2013-11-09 03:14:00,43.3,31.9,29.23,South,180,9.0,16.0,64,0.00,,,0.00,WUHU216DAVISVP2,2013-11-09 08:14:00,
2013-11-09 03:15:00,43.3,31.9,29.23,SSW,206,2.0,16.0,64,0.00,,,0.00,WUHU216DAVISVP2,2013-11-09 08:15:00,
2013-11-09 03:17:00,43.2,31.8,29.23,South,191,2.0,16.0,64,0.00,,,0.00,WUHU216DAVISVP2,2013-11-09 08:17:00,
2013-11-09 03:18:00,43.2,31.8,29.23,WSW,239,13.0,16.0,64,0.00,,,0.00,WUHU216DAVISVP2,2013-11-09 08:18:00,
2013-11-09 03:19:00,43.2,31.8,29.24,SW,219,3.0,16.0,64,0.00,,,0.00,WUHU216DAVISVP2,2013-11-09 08:19:00,
2013-11-09 03:20:00,43.2,31.8,29.24,SSW,201,5.0,16.0,64,0.00,,,0.00,WUHU216DAVISVP2,2013-11-09 08:20:00,
2013-11-09 03:21:00,43.2,31.8,29.24,SSW,193,4.0,16.0,64,0.00,,,0.00,WUHU216DAVISVP2,2013-11-09 08:21:00,
2013-11-09 03:22:00,43.2,31.8,29.24,SW,236,10.0,16.0,64,0.00,,,0.00,WUHU216DAVISVP2,2013-11-09 08:22:00,
2013-11-09 03:23:00,43.2,31.8,29.24,WSW,245,9.0,16.0,64,0.00,,,0.00,WUHU216DAVISVP2,2013-11-09 08:23:00,
2013-11-09 03:24:00,43.2,31.8,29.24,SSW,206,2.0,16.0,64,0.00,,,0.00,WUHU216DAVISVP2,2013-11-09 08:24:00,
2013-11-09 03:25:00,43.2,31.8,29.24,SW,217,10.0,16.0,64,0.00,,,0.00,WUHU216DAVISVP2,2013-11-09 08:25:00,
2013-11-09 03:26:00,43.3,31.9,29.23,South,184,20.0,20.0,64,0.00,,,0.00,WUHU216DAVISVP2,2013-11-09 08:26:00,
2013-11-09 03:28:00,43.3,31.9,29.23,SSW,212,6.0,20.0,64,0.00,,,0.00,WUHU216DAVISVP2,2013-11-09 08:28:00,
2013-11-09 03:29:00,43.2,31.8,29.23,SSW,192,11.0,20.0,64,0.00,,,0.00,WUHU216DAVISVP2,2013-11-09 08:29:00,
2013-11-09 03:30:00,43.3,31.9,29.23,SSW,204,4.0,20.0,64,0.00,,,0.00,WUHU216DAVISVP2,2013-11-09 08:30:00,
2013-11-09 03:31:00,43.2,31.8,29.23,SSW,202,2.0,20.0,64,0.00,,,0.00,WUHU216DAVISVP2,2013-11-09 08:31:00,
2013-11-09 03:33:00,43.2,31.8,29.23,South,183,1.0,20.0,64,0.00,,,0.00,WUHU216DAVISVP2,2013-11-09 08:33:00,
2013-11-09 03:34:00,43.2,31.8,29.23,South,183,13.0,20.0,64,0.00,,,0.00,WUHU216DAVISVP2,2013-11-09 08:34:00,
2013-11-09 03:35:00,43.2,31.8,29.23,SSW,206,6.0,20.0,64,0.00,,,0.00,WUHU216DAVISVP2,2013-11-09 08:35:00,
2013-11-09 03:36:00,43.2,31.8,29.23,SSW,197,5.0,20.0,64,0.00,,,0.00,WUHU216DAVISVP2,2013-11-09 08:36:00,
2013-11-09 03:39:00,43.2,31.8,29.23,SW,233,11.0,20.0,64,0.00,,,0.00,WUHU216DAVISVP2,2013-11-09 08:39:00,
2013-11-09 03:40:00,43.2,31.8,29.23,SSW,208,1.0,20.0,64,0.00,,,0.00,WUHU216DAVISVP2,2013-11-09 08:40:00,
2013-11-09 03:41:00,43.1,32.1,29.23,South,189,5.0,20.0,65,0.00,,,0.00,WUHU216DAVISVP2,2013-11-09 08:41:00,
2013-11-09 03:44:00,43.1,32.1,29.23,SW,220,7.0,20.0,65,0.00,,,0.00,WUHU216DAVISVP2,2013-11-09 08:44:00,
2013-11-09 03:45:00,43.1,32.1,29.23,SW,214,6.0,18.0,65,0.00,,,0.00,WUHU216DAVISVP2,2013-11-09 08:45:00,
2013-11-09 03:46:00,43.0,32.0,29.22,SW,215,1.0,18.0,65,0.00,,,0.00,WUHU216DAVISVP2,2013-11-09 08:46:00,
2013-11-09 03:47:00,43.0,32.0,29.22,SSW,208,2.0,18.0,65,0.00,,,0.00,WUHU216DAVISVP2,2013-11-09 08:47:00,
2013-11-09 03:49:00,43.0,32.0,29.22,South,190,5.0,18.0,65,0.00,,,0.00,WUHU216DAVISVP2,2013-11-09 08:49:00,
2013-11-09 03:50:00,42.9,31.9,29.22,SW,214,5.0,18.0,65,0.00,,,0.00,WUHU216DAVISVP2,2013-11-09 08:50:00,
2013-11-09 03:51:00,42.9,31.9,29.22,SW,222,3.0,18.0,65,0.00,,,0.00,WUHU216DAVISVP2,2013-11-09 08:51:00,
2013-11-09 03:52:00,42.9,31.9,29.22,SW,219,2.0,15.0,65,0.00,,,0.00,WUHU216DAVISVP2,2013-11-09 08:52:00,
2013-11-09 03:54:00,42.9,31.9,29.22,SSW,196,7.0,14.0,65,0.00,,,0.00,WUHU216DAVISVP2,2013-11-09 08:54:00,
2013-11-09 03:55:00,42.9,31.9,29.22,SSW,211,5.0,14.0,65,0.00,,,0.00,WUHU216DAVISVP2,2013-11-09 08:55:00,
2013-11-09 03:56:00,43.0,32.0,29.22,South,185,9.0,14.0,65,0.00,,,0.00,WUHU216DAVISVP2,2013-11-09 08:56:00,
2013-11-09 03:57:00,43.0,32.0,29.22,SW,224,4.0,14.0,65,0.00,,,0.00,WUHU216DAVISVP2,2013-11-09 08:57:00,
2013-11-09 03:59:00,43.0,32.0,29.22,SW,220,5.0,14.0,65,0.00,,,0.00,WUHU216DAVISVP2,2013-11-09 08:59:00,
2013-11-09 04:00:00,43.0,32.0,29.22,SW,218,1.0,14.0,65,0.00,,,0.00,WUHU216DAVISVP2,2013-11-09 09:00:00,
2013-11-09 04:01:00,43.0,32.0,29.22,SSW,203,2.0,14.0,65,0.00,,,0.00,WUHU216DAVISVP2,2013-11-09 09:01:00,
2013-11-09 04:02:00,43.0,32.0,29.22,SW,222,2.0,14.0,65,0.00,,,0.00,WUHU216DAVISVP2,2013-11-09 09:02:00,
2013-11-09 04:05:00,43.1,32.1,29.22,SW,230,5.0,14.0,65,0.00,,,0.00,WUHU216DAVISVP2,2013-11-09 09:05:00,
2013-11-09 04:07:00,43.1,32.1,29.22,SW,216,8.0,14.0,65,0.00,,,0.00,WUHU216DAVISVP2,2013-11-09 09:07:00,
2013-11-09 04:11:00,43.2,32.2,29.22,SW,226,6.0,14.0,65,0.00,,,0.00,WUHU216DAVISVP2,2013-11-09 09:11:00,
2013-11-09 04:12:00,43.2,32.2,29.22,SSW,210,2.0,14.0,65,0.00,,,0.00,WUHU216DAVISVP2,2013-11-09 09:12:00,
2013-11-09 04:14:00,43.2,32.2,29.22,SSW,201,3.0,14.0,65,0.00,,,0.00,WUHU216DAVISVP2,2013-11-09 09:14:00,
2013-11-09 04:16:00,43.2,32.2,29.22,SW,215,5.0,14.0,65,0.00,,,0.00,WUHU216DAVISVP2,2013-11-09 09:16:00,
2013-11-09 04:17:00,43.2,31.8,29.22,SSW,212,4.0,14.0,64,0.00,,,0.00,WUHU216DAVISVP2,2013-11-09 09:17:00,
2013-11-09 04:19:00,43.2,31.8,29.22,SW,216,4.0,14.0,64,0.00,,,0.00,WUHU216DAVISVP2,2013-11-09 09:19:00,
2013-11-09 04:21:00,43.3,31.9,29.21,SW,216,4.0,14.0,64,0.00,,,0.00,WUHU216DAVISVP2,2013-11-09 09:21:00,
2013-11-09 04:22:00,43.3,31.9,29.21,SSW,202,1.0,14.0,64,0.00,,,0.00,WUHU216DAVISVP2,2013-11-09 09:22:00,
2013-11-09 04:24:00,43.4,32.0,29.21,SSW,204,8.0,16.0,64,0.00,,,0.00,WUHU216DAVISVP2,2013-11-09 09:24:00,
2013-11-09 04:26:00,43.5,32.1,29.21,SSW,207,1.0,16.0,64,0.00,,,0.00,WUHU216DAVISVP2,2013-11-09 09:26:00,
2013-11-09 04:27:00,43.5,31.7,29.21,SW,215,4.0,16.0,63,0.00,,,0.00,WUHU216DAVISVP2,2013-11-09 09:27:00,
2013-11-09 04:28:00,43.5,31.7,29.21,SW,217,0.0,16.0,63,0.00,,,0.00,WUHU216DAVISVP2,2013-11-09 09:28:00,
2013-11-09 04:29:00,43.5,31.7,29.21,WSW,244,12.0,16.0,63,0.00,,,0.00,WUHU216DAVISVP2,2013-11-09 09:29:00,
2013-11-09 04:31:00,43.6,31.8,29.21,SSW,202,4.0,16.0,63,0.00,,,0.00,WUHU216DAVISVP2,2013-11-09 09:31:00,
2013-11-09 04:32:00,43.6,31.8,29.21,SW,216,6.0,16.0,63,0.00,,,0.00,WUHU216DAVISVP2,2013-11-09 09:32:00,
2013-11-09 04:33:00,43.6,31.8,29.21,SSW,197,7.0,16.0,63,0.00,,,0.00,WUHU216DAVISVP2,2013-11-09 09:33:00,
2013-11-09 04:35:00,43.7,31.5,29.21,SW,217,2.0,21.0,62,0.00,,,0.00,WUHU216DAVISVP2,2013-11-09 09:35:00,
2013-11-09 04:36:00,43.8,31.6,29.21,SSW,193,8.0,21.0,62,0.00,,,0.00,WUHU216DAVISVP2,2013-11-09 09:36:00,
2013-11-09 04:37:00,43.8,31.6,29.21,SW,215,5.0,21.0,62,0.00,,,0.00,WUHU216DAVISVP2,2013-11-09 09:37:00,
2013-11-09 04:38:00,43.8,31.6,29.21,SSW,207,10.0,21.0,62,0.00,,,0.00,WUHU216DAVISVP2,2013-11-09 09:38:00,
2013-11-09 04:40:00,43.9,31.7,29.21,SW,236,7.0,21.0,62,0.00,,,0.00,WUHU216DAVISVP2,2013-11-09 09:40:00,
2013-11-09 04:41:00,44.0,31.8,29.21,South,174,9.0,21.0,62,0.00,,,0.00,WUHU216DAVISVP2,2013-11-09 09:41:00,
2013-11-09 04:42:00,44.0,31.8,29.21,SW,228,6.0,21.0,62,0.00,,,0.00,WUHU216DAVISVP2,2013-11-09 09:42:00,
2013-11-09 04:43:00,44.0,31.8,29.21,SSW,192,6.0,21.0,62,0.00,,,0.00,WUHU216DAVISVP2,2013-11-09 09:43:00,
2013-11-09 04:45:00,44.0,31.8,29.21,SSW,197,5.0,21.0,62,0.00,,,0.00,WUHU216DAVISVP2,2013-11-09 09:45:00,
2013-11-09 04:46:00,44.0,31.4,29.21,South,189,8.0,21.0,61,0.00,,,0.00,WUHU216DAVISVP2,2013-11-09 09:46:00,
2013-11-09 04:47:00,44.0,31.4,29.21,WSW,245,14.0,21.0,61,0.00,,,0.00,WUHU216DAVISVP2,2013-11-09 09:47:00,
2013-11-09 04:48:00,44.0,31.4,29.21,SSW,208,1.0,21.0,61,0.00,,,0.00,WUHU216DAVISVP2,2013-11-09 09:48:00,
2013-11-09 04:50:00,44.1,31.5,29.20,SW,216,2.0,21.0,61,0.00,,,0.00,WUHU216DAVISVP2,2013-11-09 09:50:00,
2013-11-09 04:52:00,44.2,31.6,29.20,SW,221,4.0,21.0,61,0.00,,,0.00,WUHU216DAVISVP2,2013-11-09 09:52:00,
2013-11-09 04:53:00,44.2,31.6,29.20,SW,235,5.0,21.0,61,0.00,,,0.00,WUHU216DAVISVP2,2013-11-09 09:53:00,
2013-11-09 04:55:00,44.2,31.6,29.20,South,181,6.0,21.0,61,0.00,,,0.00,WUHU216DAVISVP2,2013-11-09 09:55:00,
2013-11-09 04:57:00,44.2,31.6,29.20,SSW,201,9.0,21.0,61,0.00,,,0.00,WUHU216DAVISVP2,2013-11-09 09:57:00,
2013-11-09 04:58:00,44.2,31.6,29.20,SSW,206,2.0,21.0,61,0.00,,,0.00,WUHU216DAVISVP2,2013-11-09 09:58:00,
2013-11-09 05:00:00,44.2,31.6,29.20,SSW,195,8.0,19.0,61,0.00,,,0.00,WUHU216DAVISVP2,2013-11-09 10:00:00,
2013-11-09 05:02:00,44.2,31.6,29.20,South,182,8.0,19.0,61,0.00,,,0.00,WUHU216DAVISVP2,2013-11-09 10:02:00,
2013-11-09 05:03:00,44.2,31.6,29.20,WSW,241,10.0,19.0,61,0.00,,,0.00,WUHU216DAVISVP2,2013-11-09 10:03:00,
2013-11-09 05:04:00,44.2,31.6,29.20,SSW,207,4.0,19.0,61,0.00,,,0.00,WUHU216DAVISVP2,2013-11-09 10:04:00,
2013-11-09 05:06:00,44.2,31.2,29.20,SSW,199,6.0,19.0,60,0.00,,,0.00,WUHU216DAVISVP2,2013-11-09 10:06:00,
2013-11-09 05:07:00,44.2,31.2,29.20,SW,231,9.0,19.0,60,0.00,,,0.00,WUHU216DAVISVP2,2013-11-09 10:07:00,
2013-11-09 05:08:00,44.2,31.2,29.20,South,187,9.0,19.0,60,0.00,,,0.00,WUHU216DAVISVP2,2013-11-09 10:08:00,
2013-11-09 05:09:00,44.2,31.2,29.20,SSW,193,8.0,18.0,60,0.00,,,0.00,WUHU216DAVISVP2,2013-11-09 10:09:00,
2013-11-09 05:11:00,44.3,31.3,29.20,SW,228,8.0,19.0,60,0.00,,,0.00,WUHU216DAVISVP2,2013-11-09 10:11:00,
2013-11-09 05:12:00,44.3,31.3,29.20,SW,230,12.0,19.0,60,0.00,,,0.00,WUHU216DAVISVP2,2013-11-09 10:12:00,
2013-11-09 05:13:00,44.3,31.3,29.20,SSW,194,5.0,19.0,60,0.00,,,0.00,WUHU216DAVISVP2,2013-11-09 10:13:00,
2013-11-09 05:14:00,44.3,31.3,29.20,SSW,203,5.0,19.0,60,0.00,,,0.00,WUHU216DAVISVP2,2013-11-09 10:14:00,
2013-11-09 05:17:00,44.3,31.3,29.20,South,189,10.0,19.0,60,0.00,,,0.00,WUHU216DAVISVP2,2013-11-09 10:17:00,
2013-11-09 05:19:00,44.3,31.3,29.20,SSW,202,9.0,19.0,60,0.00,,,0.00,WUHU216DAVISVP2,2013-11-09 10:19:00,
2013-11-09 05:20:00,44.3,31.3,29.20,SSW,195,8.0,19.0,60,0.00,,,0.00,WUHU216DAVISVP2,2013-11-09 10:20:00,
2013-11-09 05:23:00,44.3,31.3,29.20,SSW,204,5.0,19.0,60,0.00,,,0.00,WUHU216DAVISVP2,2013-11-09 10:23:00,
2013-11-09 05:24:00,44.3,31.3,29.20,SSW,210,5.0,19.0,60,0.00,,,0.00,WUHU216DAVISVP2,2013-11-09 10:24:00,
2013-11-09 05:25:00,44.3,31.3,29.20,SSW,210,8.0,19.0,60,0.00,,,0.00,WUHU216DAVISVP2,2013-11-09 10:25:00,
2013-11-09 05:26:00,44.3,31.3,29.20,WSW,241,10.0,19.0,60,0.00,,,0.00,WUHU216DAVISVP2,2013-11-09 10:26:00,
2013-11-09 05:28:00,44.4,31.0,29.20,SW,225,9.0,23.0,59,0.00,,,0.00,WUHU216DAVISVP2,2013-11-09 10:28:00,
2013-11-09 05:29:00,44.4,31.0,29.20,WSW,238,11.0,23.0,59,0.00,,,0.00,WUHU216DAVISVP2,2013-11-09 10:29:00,
2013-11-09 05:30:00,44.4,31.0,29.20,SW,228,10.0,23.0,59,0.00,,,0.00,WUHU216DAVISVP2,2013-11-09 10:30:00,
2013-11-09 05:31:00,44.4,31.0,29.20,SW,231,8.0,23.0,59,0.00,,,0.00,WUHU216DAVISVP2,2013-11-09 10:31:00,
2013-11-09 05:34:00,44.3,31.3,29.20,WSW,239,8.0,23.0,60,0.00,,,0.00,WUHU216DAVISVP2,2013-11-09 10:34:00,
2013-11-09 05:35:00,44.3,31.3,29.20,SW,220,6.0,23.0,60,0.00,,,0.00,WUHU216DAVISVP2,2013-11-09 10:35:00,
2013-11-09 05:37:00,44.3,31.3,29.19,SW,235,9.0,23.0,60,0.00,,,0.00,WUHU216DAVISVP2,2013-11-09 10:37:00,
2013-11-09 05:39:00,44.3,31.3,29.19,South,183,7.0,23.0,60,0.00,,,0.00,WUHU216DAVISVP2,2013-11-09 10:39:00,
2013-11-09 05:40:00,44.3,31.3,29.19,WSW,247,7.0,23.0,60,0.00,,,0.00,WUHU216DAVISVP2,2013-11-09 10:40:00,
2013-11-09 05:42:00,44.3,31.3,29.20,WSW,238,11.0,23.0,60,0.00,,,0.00,WUHU216DAVISVP2,2013-11-09 10:42:00,
2013-11-09 05:44:00,44.5,31.1,29.20,WSW,243,10.0,27.0,59,0.00,,,0.00,WUHU216DAVISVP2,2013-11-09 10:44:00,
2013-11-09 05:45:00,44.5,31.1,29.19,SW,227,8.0,27.0,59,0.00,,,0.00,WUHU216DAVISVP2,2013-11-09 10:45:00,
2013-11-09 05:46:00,44.5,31.1,29.19,WSW,238,8.0,27.0,59,0.00,,,0.00,WUHU216DAVISVP2,2013-11-09 10:46:00,
2013-11-09 05:48:00,44.5,31.1,29.19,SW,216,4.0,27.0,59,0.00,,,0.00,WUHU216DAVISVP2,2013-11-09 10:48:00,
2013-11-09 05:49:00,44.5,31.1,29.19,SSW,197,6.0,27.0,59,0.00,,,0.00,WUHU216DAVISVP2,2013-11-09 10:49:00,
2013-11-09 05:50:00,44.5,31.1,29.19,SW,228,5.0,27.0,59,0.00,,,0.00,WUHU216DAVISVP2,2013-11-09 10:50:00,
2013-11-09 05:51:00,44.5,31.1,29.19,South,191,10.0,27.0,59,0.00,,,0.00,WUHU216DAVISVP2,2013-11-09 10:51:00,
2013-11-09 05:53:00,44.5,31.1,29.19,SW,214,8.0,27.0,59,0.00,,,0.00,WUHU216DAVISVP2,2013-11-09 10:53:00,
2013-11-09 05:55:00,44.5,31.5,29.19,WSW,241,4.0,27.0,60,0.00,,,0.00,WUHU216DAVISVP2,2013-11-09 10:55:00,
2013-11-09 05:56:00,44.5,31.5,29.19,WSW,241,22.0,27.0,60,0.00,,,0.00,WUHU216DAVISVP2,2013-11-09 10:56:00,
2013-11-09 05:58:00,44.5,31.5,29.19,WSW,241,18.0,27.0,60,0.00,,,0.00,WUHU216DAVISVP2,2013-11-09 10:58:00,
2013-11-09 06:00:00,44.5,31.5,29.19,WSW,238,8.0,27.0,60,0.00,,,0.00,WUHU216DAVISVP2,2013-11-09 11:00:00,
2013-11-09 06:01:00,44.5,31.5,29.19,SW,222,11.0,27.0,60,0.00,,,0.00,WUHU216DAVISVP2,2013-11-09 11:01:00,
2013-11-09 06:03:00,44.4,31.4,29.19,SW,218,9.0,26.0,60,0.00,,,0.00,WUHU216DAVISVP2,2013-11-09 11:03:00,
2013-11-09 06:05:00,44.5,31.5,29.19,WSW,238,22.0,26.0,60,0.00,,,0.00,WUHU216DAVISVP2,2013-11-09 11:05:00,
2013-11-09 06:06:00,44.5,31.5,29.19,SSW,212,7.0,26.0,60,0.00,,,0.00,WUHU216DAVISVP2,2013-11-09 11:06:00,
2013-11-09 06:07:00,44.5,31.5,29.19,SW,228,9.0,26.0,60,0.00,,,0.00,WUHU216DAVISVP2,2013-11-09 11:07:00,
2013-11-09 06:09:00,44.5,31.5,29.19,SW,235,8.0,28.0,60,0.00,,,0.00,WUHU216DAVISVP2,2013-11-09 11:09:00,
2013-11-09 06:10:00,44.5,31.5,29.19,South,191,11.0,28.0,60,0.00,,,0.00,WUHU216DAVISVP2,2013-11-09 11:10:00,
2013-11-09 06:11:00,44.5,31.5,29.19,SSW,196,6.0,28.0,60,0.00,,,0.00,WUHU216DAVISVP2,2013-11-09 11:11:00,
2013-11-09 06:12:00,44.5,31.5,29.19,WSW,239,13.0,28.0,60,0.00,,,0.00,WUHU216DAVISVP2,2013-11-09 11:12:00,
2013-11-09 06:14:00,44.4,31.4,29.19,SSW,198,4.0,28.0,60,0.00,,,0.00,WUHU216DAVISVP2,2013-11-09 11:14:00,
2013-11-09 06:15:00,44.3,31.3,29.19,WSW,249,9.0,28.0,60,0.00,,,0.00,WUHU216DAVISVP2,2013-11-09 11:15:00,
2013-11-09 06:16:00,44.3,31.7,29.19,SSW,193,9.0,28.0,61,0.00,,,0.00,WUHU216DAVISVP2,2013-11-09 11:16:00,
2013-11-09 06:17:00,44.3,31.7,29.19,SW,215,14.0,28.0,61,0.00,,,0.00,WUHU216DAVISVP2,2013-11-09 11:17:00,
2013-11-09 06:20:00,44.4,31.4,29.19,SSW,201,8.0,28.0,60,0.00,,,0.00,WUHU216DAVISVP2,2013-11-09 11:20:00,
2013-11-09 06:21:00,44.4,31.8,29.19,SW,220,7.0,28.0,61,0.00,,,0.00,WUHU216DAVISVP2,2013-11-09 11:21:00,
2013-11-09 06:22:00,44.4,31.8,29.19,SW,236,7.0,28.0,61,0.00,,,0.00,WUHU216DAVISVP2,2013-11-09 11:22:00,
2013-11-09 06:25:00,44.3,31.7,29.19,SSW,199,1.0,28.0,61,0.00,,,0.00,WUHU216DAVISVP2,2013-11-09 11:25:00,
2013-11-09 06:26:00,44.3,31.7,29.19,SSW,199,1.0,28.0,61,0.00,,,0.00,WUHU216DAVISVP2,2013-11-09 11:26:00,
2013-11-09 06:27:00,44.3,31.7,29.19,WSW,241,7.0,26.0,61,0.00,,,0.00,WUHU216DAVISVP2,2013-11-09 11:27:00,
2013-11-09 06:28:00,44.3,31.7,29.19,WSW,256,12.0,26.0,61,0.00,,,0.00,WUHU216DAVISVP2,2013-11-09 11:28:00,
2013-11-09 06:31:00,44.2,31.6,29.19,WSW,241,6.0,26.0,61,0.00,,,0.00,WUHU216DAVISVP2,2013-11-09 11:31:00,
2013-11-09 06:32:00,44.1,31.5,29.19,SW,219,5.0,26.0,61,0.00,,,0.00,WUHU216DAVISVP2,2013-11-09 11:32:00,
2013-11-09 06:33:00,44.1,31.9,29.19,WSW,243,12.0,26.0,62,0.00,,,0.00,WUHU216DAVISVP2,2013-11-09 11:33:00,
2013-11-09 06:36:00,44.1,31.9,29.19,SW,228,6.0,26.0,62,0.00,,,0.00,WUHU216DAVISVP2,2013-11-09 11:36:00,
2013-11-09 06:37:00,44.1,31.9,29.19,WSW,243,14.0,20.0,62,0.00,,,0.00,WUHU216DAVISVP2,2013-11-09 11:37:00,
2013-11-09 06:38:00,44.1,31.9,29.19,SSW,208,0.0,20.0,62,0.00,,,0.00,WUHU216DAVISVP2,2013-11-09 11:38:00,
2013-11-09 06:41:00,44.1,31.9,29.19,SW,226,10.0,19.0,62,0.00,,,0.00,WUHU216DAVISVP2,2013-11-09 11:41:00,
2013-11-09 06:42:00,44.1,31.9,29.19,WSW,237,1.0,19.0,62,0.00,,,0.00,WUHU216DAVISVP2,2013-11-09 11:42:00,
2013-11-09 06:43:00,44.1,31.9,29.19,SSW,195,5.0,19.0,62,0.00,,,0.00,WUHU216DAVISVP2,2013-11-09 11:43:00,
2013-11-09 06:46:00,44.2,32.0,29.19,WSW,242,7.0,19.0,62,0.00,,,0.00,WUHU216DAVISVP2,2013-11-09 11:46:00,
2013-11-09 06:47:00,44.2,32.0,29.19,SW,232,6.0,19.0,62,0.00,,,0.00,WUHU216DAVISVP2,2013-11-09 11:47:00,
2013-11-09 06:48:00,44.2,32.0,29.18,SSW,201,5.0,19.0,62,0.00,,,0.00,WUHU216DAVISVP2,2013-11-09 11:48:00,
2013-11-09 06:51:00,44.1,31.9,29.18,WSW,253,11.0,19.0,62,0.00,,,0.00,WUHU216DAVISVP2,2013-11-09 11:51:00,
2013-11-09 06:52:00,44.1,32.3,29.18,SSW,202,5.0,19.0,63,0.00,,,0.00,WUHU216DAVISVP2,2013-11-09 11:52:00,
2013-11-09 06:53:00,44.1,32.3,29.18,SW,233,6.0,19.0,63,0.00,,,0.00,WUHU216DAVISVP2,2013-11-09 11:53:00,
2013-11-09 06:56:00,44.0,32.2,29.18,SSW,199,5.0,20.0,63,0.00,,,0.00,WUHU216DAVISVP2,2013-11-09 11:56:00,
2013-11-09 06:57:00,44.1,32.3,29.18,SW,216,8.0,20.0,63,0.00,,,0.00,WUHU216DAVISVP2,2013-11-09 11:57:00,
2013-11-09 06:58:00,44.1,32.3,29.18,SSW,195,5.0,20.0,63,0.00,,,0.00,WUHU216DAVISVP2,2013-11-09 11:58:00,
2013-11-09 06:59:00,44.1,32.3,29.18,SW,221,2.0,20.0,63,0.00,,,0.00,WUHU216DAVISVP2,2013-11-09 11:59:00,
2013-11-09 07:01:00,44.1,32.3,29.18,WSW,252,10.0,21.0,63,0.00,,,0.00,WUHU216DAVISVP2,2013-11-09 12:01:00,
2013-11-09 07:02:00,44.1,32.3,29.18,WSW,251,10.0,21.0,63,0.00,,,0.00,WUHU216DAVISVP2,2013-11-09 12:02:00,
2013-11-09 07:04:00,44.2,32.4,29.18,SW,214,8.0,21.0,63,0.00,,,0.00,WUHU216DAVISVP2,2013-11-09 12:04:00,
2013-11-09 07:07:00,44.3,32.6,29.18,WSW,240,11.0,21.0,63,0.00,,,0.00,WUHU216DAVISVP2,2013-11-09 12:07:00,
2013-11-09 07:09:00,44.3,32.6,29.18,SSW,196,7.0,21.0,63,0.00,,,0.00,WUHU216DAVISVP2,2013-11-09 12:09:00,
2013-11-09 07:12:00,44.3,32.6,29.18,SW,220,6.0,22.0,63,0.00,,,0.00,WUHU216DAVISVP2,2013-11-09 12:12:00,
2013-11-09 07:14:00,44.3,32.6,29.18,SW,234,7.0,22.0,63,0.00,,,0.00,WUHU216DAVISVP2,2013-11-09 12:14:00,
2013-11-09 07:15:00,44.2,32.5,29.18,WSW,254,11.0,22.0,63,0.00,,,0.00,WUHU216DAVISVP2,2013-11-09 12:15:00,
2013-11-09 07:17:00,44.3,32.6,29.18,WSW,254,8.0,22.0,63,0.00,,,0.00,WUHU216DAVISVP2,2013-11-09 12:17:00,
2013-11-09 07:18:00,44.3,33.0,29.18,SW,227,15.0,22.0,64,0.00,,,0.00,WUHU216DAVISVP2,2013-11-09 12:18:00,
2013-11-09 07:19:00,44.3,32.6,29.18,SSW,204,4.0,24.0,63,0.00,,,0.00,WUHU216DAVISVP2,2013-11-09 12:19:00,
2013-11-09 07:20:00,44.4,32.7,29.18,SW,218,6.0,24.0,63,0.00,,,0.00,WUHU216DAVISVP2,2013-11-09 12:20:00,
2013-11-09 07:22:00,44.5,32.8,29.18,WSW,243,11.0,24.0,63,0.00,,,0.00,WUHU216DAVISVP2,2013-11-09 12:22:00,
2013-11-09 07:23:00,44.5,32.8,29.18,WSW,237,12.0,24.0,63,0.00,,,0.00,WUHU216DAVISVP2,2013-11-09 12:23:00,
2013-11-09 07:24:00,44.6,32.9,29.17,SSW,213,9.0,24.0,63,0.00,,,0.00,WUHU216DAVISVP2,2013-11-09 12:24:00,
2013-11-09 07:25:00,44.6,32.9,29.17,WSW,241,9.0,24.0,63,0.00,,,0.00,WUHU216DAVISVP2,2013-11-09 12:25:00,
2013-11-09 07:26:00,44.7,33.0,29.18,WSW,241,4.0,24.0,63,0.00,,,0.00,WUHU216DAVISVP2,2013-11-09 12:26:00,
2013-11-09 07:27:00,44.7,33.0,29.17,SW,235,7.0,24.0,63,0.00,,,0.00,WUHU216DAVISVP2,2013-11-09 12:27:00,
2013-11-09 07:28:00,44.8,33.1,29.17,SW,235,10.0,24.0,63,0.00,,,0.00,WUHU216DAVISVP2,2013-11-09 12:28:00,
2013-11-09 07:30:00,44.8,33.1,29.17,WSW,247,16.0,24.0,63,0.00,,,0.00,WUHU216DAVISVP2,2013-11-09 12:30:00,
2013-11-09 07:31:00,44.8,33.1,29.17,WSW,238,15.0,24.0,63,0.00,,,0.00,WUHU216DAVISVP2,2013-11-09 12:31:00,
2013-11-09 07:32:00,44.9,33.2,29.17,SW,234,11.0,24.0,63,0.00,,,0.00,WUHU216DAVISVP2,2013-11-09 12:32:00,
2013-11-09 07:33:00,44.9,33.2,29.17,WSW,237,9.0,24.0,63,0.00,,,0.00,WUHU216DAVISVP2,2013-11-09 12:33:00,
2013-11-09 07:34:00,44.9,33.2,29.17,WSW,239,10.0,24.0,63,0.00,,,0.00,WUHU216DAVISVP2,2013-11-09 12:34:00,
2013-11-09 07:35:00,45.0,33.2,29.17,SW,226,7.0,24.0,63,0.00,,,0.00,WUHU216DAVISVP2,2013-11-09 12:35:00,
2013-11-09 07:36:00,45.0,33.2,29.17,SW,219,12.0,24.0,63,0.00,,,0.00,WUHU216DAVISVP2,2013-11-09 12:36:00,
2013-11-09 07:37:00,45.0,32.8,29.17,SSW,202,14.0,22.0,62,0.00,,,0.00,WUHU216DAVISVP2,2013-11-09 12:37:00,
2013-11-09 07:38:00,45.0,33.2,29.18,WSW,239,8.0,22.0,63,0.00,,,0.00,WUHU216DAVISVP2,2013-11-09 12:38:00,
2013-11-09 07:39:00,45.1,33.3,29.18,WSW,243,10.0,22.0,63,0.00,,,0.00,WUHU216DAVISVP2,2013-11-09 12:39:00,
2013-11-09 07:40:00,45.1,33.3,29.17,WSW,243,10.0,22.0,63,0.00,,,0.00,WUHU216DAVISVP2,2013-11-09 12:40:00,
2013-11-09 07:41:00,45.1,33.3,29.17,SW,218,9.0,22.0,63,0.00,,,0.00,WUHU216DAVISVP2,2013-11-09 12:41:00,
2013-11-09 07:42:00,45.2,33.0,29.17,SSW,196,6.0,24.0,62,0.00,,,0.00,WUHU216DAVISVP2,2013-11-09 12:42:00,
2013-11-09 07:43:00,45.2,33.0,29.17,SSW,196,10.0,24.0,62,0.00,,,0.00,WUHU216DAVISVP2,2013-11-09 12:43:00,
2013-11-09 07:44:00,45.2,33.0,29.17,WSW,239,12.0,24.0,62,0.00,,,0.00,WUHU216DAVISVP2,2013-11-09 12:44:00,
2013-11-09 07:45:00,45.3,33.5,29.17,South,183,13.0,24.0,63,0.00,,,0.00,WUHU216DAVISVP2,2013-11-09 12:45:00,
2013-11-09 07:46:00,45.2,33.4,29.17,SSW,193,7.0,24.0,63,0.00,,,0.00,WUHU216DAVISVP2,2013-11-09 12:46:00,
2013-11-09 07:47:00,45.3,33.5,29.17,WSW,243,13.0,24.0,63,0.00,,,0.00,WUHU216DAVISVP2,2013-11-09 12:47:00,
2013-11-09 07:48:00,45.3,33.1,29.17,SSW,210,3.0,24.0,62,0.00,,,0.00,WUHU216DAVISVP2,2013-11-09 12:48:00,
2013-11-09 07:49:00,45.3,33.1,29.17,SW,236,19.0,24.0,62,0.00,,,0.00,WUHU216DAVISVP2,2013-11-09 12:49:00,
2013-11-09 07:51:00,45.4,33.2,29.17,SSW,207,7.0,24.0,62,0.00,,,0.00,WUHU216DAVISVP2,2013-11-09 12:51:00,
2013-11-09 07:53:00,45.4,33.2,29.17,WSW,244,10.0,24.0,62,0.00,,,0.00,WUHU216DAVISVP2,2013-11-09 12:53:00,
2013-11-09 07:54:00,45.5,33.3,29.17,WSW,237,12.0,24.0,62,0.00,,,0.00,WUHU216DAVISVP2,2013-11-09 12:54:00,
2013-11-09 07:56:00,45.5,33.3,29.17,SW,225,18.0,24.0,62,0.00,,,0.00,WUHU216DAVISVP2,2013-11-09 12:56:00,
2013-11-09 07:58:00,45.6,33.4,29.17,SSW,210,11.0,24.0,62,0.00,,,0.00,WUHU216DAVISVP2,2013-11-09 12:58:00,
2013-11-09 08:00:00,45.7,33.5,29.17,WSW,253,27.0,27.0,62,0.00,,,0.00,WUHU216DAVISVP2,2013-11-09 13:00:00,
2013-11-09 08:01:00,45.8,33.6,29.17,SW,222,9.0,27.0,62,0.00,,,0.00,WUHU216DAVISVP2,2013-11-09 13:01:00,
2013-11-09 08:02:00,45.8,33.6,29.17,SSW,205,7.0,27.0,62,0.00,,,0.00,WUHU216DAVISVP2,2013-11-09 13:02:00,
2013-11-09 08:03:00,45.9,33.7,29.17,SW,234,19.0,27.0,62,0.00,,,0.00,WUHU216DAVISVP2,2013-11-09 13:03:00,
2013-11-09 08:05:00,46.0,33.8,29.17,SSW,212,5.0,27.0,62,0.00,,,0.00,WUHU216DAVISVP2,2013-11-09 13:05:00,
2013-11-09 08:06:00,45.9,33.7,29.17,WSW,239,16.0,27.0,62,0.00,,,0.00,WUHU216DAVISVP2,2013-11-09 13:06:00,
2013-11-09 08:07:00,45.9,33.7,29.17,SW,235,6.0,27.0,62,0.00,,,0.00,WUHU216DAVISVP2,2013-11-09 13:07:00,
2013-11-09 08:08:00,45.8,33.6,29.17,SSW,208,6.0,27.0,62,0.00,,,0.00,WUHU216DAVISVP2,2013-11-09 13:08:00,
2013-11-09 08:09:00,45.8,33.6,29.17,SSW,201,10.0,27.0,62,0.00,,,0.00,WUHU216DAVISVP2,2013-11-09 13:09:00,
2013-11-09 08:10:00,45.8,33.6,29.17,SW,227,11.0,27.0,62,0.00,,,0.00,WUHU216DAVISVP2,2013-11-09 13:10:00,
2013-11-09 08:12:00,45.8,33.6,29.17,WSW,239,11.0,27.0,62,0.00,,,0.00,WUHU216DAVISVP2,2013-11-09 13:12:00,
2013-11-09 08:13:00,45.9,33.7,29.17,SSW,208,5.0,27.0,62,0.00,,,0.00,WUHU216DAVISVP2,2013-11-09 13:13:00,
2013-11-09 08:14:00,45.9,33.7,29.17,SSW,208,5.0,27.0,62,0.00,,,0.00,WUHU216DAVISVP2,2013-11-09 13:14:00,
2013-11-09 08:15:00,46.0,33.8,29.17,WSW,237,9.0,27.0,62,0.00,,,0.00,WUHU216DAVISVP2,2013-11-09 13:15:00,
2013-11-09 08:17:00,46.0,33.8,29.17,WSW,240,24.0,27.0,62,0.00,,,0.00,WUHU216DAVISVP2,2013-11-09 13:17:00,
2013-11-09 08:18:00,46.1,33.9,29.17,SW,232,13.0,27.0,62,0.00,,,0.00,WUHU216DAVISVP2,2013-11-09 13:18:00,
2013-11-09 08:19:00,46.2,34.0,29.17,SW,214,6.0,27.0,62,0.00,,,0.00,WUHU216DAVISVP2,2013-11-09 13:19:00,
2013-11-09 08:20:00,46.3,34.1,29.17,WSW,240,10.0,27.0,62,0.00,,,0.00,WUHU216DAVISVP2,2013-11-09 13:20:00,
2013-11-09 08:22:00,46.3,34.1,29.17,WSW,246,12.0,27.0,62,0.00,,,0.00,WUHU216DAVISVP2,2013-11-09 13:22:00,
2013-11-09 08:23:00,46.3,34.1,29.17,WSW,246,25.0,27.0,62,0.00,,,0.00,WUHU216DAVISVP2,2013-11-09 13:23:00,
2013-11-09 08:24:00,46.3,34.1,29.17,WSW,237,18.0,27.0,62,0.00,,,0.00,WUHU216DAVISVP2,2013-11-09 13:24:00,
2013-11-09 08:26:00,46.3,34.1,29.17,WSW,241,14.0,27.0,62,0.00,,,0.00,WUHU216DAVISVP2,2013-11-09 13:26:00,
2013-11-09 08:27:00,46.3,34.5,29.17,SW,222,13.0,27.0,63,0.00,,,0.00,WUHU216DAVISVP2,2013-11-09 13:27:00,
2013-11-09 08:28:00,46.3,34.5,29.17,WSW,247,18.0,27.0,63,0.00,,,0.00,WUHU216DAVISVP2,2013-11-09 13:28:00,
2013-11-09 08:29:00,46.4,34.6,29.17,SSW,206,13.0,27.0,63,0.00,,,0.00,WUHU216DAVISVP2,2013-11-09 13:29:00,
2013-11-09 08:31:00,46.4,34.6,29.17,SW,226,3.0,30.0,63,0.00,,,0.00,WUHU216DAVISVP2,2013-11-09 13:31:00,
2013-11-09 08:32:00,46.5,34.7,29.17,WSW,247,15.0,30.0,63,0.00,,,0.00,WUHU216DAVISVP2,2013-11-09 13:32:00,
2013-11-09 08:34:00,46.6,34.8,29.17,West,264,22.0,30.0,63,0.00,,,0.00,WUHU216DAVISVP2,2013-11-09 13:34:00,
2013-11-09 08:35:00,46.7,34.9,29.17,SW,216,12.0,30.0,63,0.00,,,0.00,WUHU216DAVISVP2,2013-11-09 13:35:00,
2013-11-09 08:36:00,46.8,34.6,29.17,SSW,210,6.0,30.0,62,0.00,,,0.00,WUHU216DAVISVP2,2013-11-09 13:36:00,
2013-11-09 08:37:00,46.9,34.6,29.17,SW,215,11.0,30.0,62,0.00,,,0.00,WUHU216DAVISVP2,2013-11-09 13:37:00,
2013-11-09 08:39:00,46.9,34.6,29.17,SW,229,11.0,30.0,62,0.00,,,0.00,WUHU216DAVISVP2,2013-11-09 13:39:00,
2013-11-09 08:40:00,46.9,34.6,29.17,SW,217,16.0,30.0,62,0.00,,,0.00,WUHU216DAVISVP2,2013-11-09 13:40:00,
2013-11-09 08:41:00,46.9,34.6,29.17,WSW,256,9.0,30.0,62,0.00,,,0.00,WUHU216DAVISVP2,2013-11-09 13:41:00,
2013-11-09 08:42:00,47.0,34.7,29.17,WSW,247,10.0,30.0,62,0.00,,,0.00,WUHU216DAVISVP2,2013-11-09 13:42:00,
2013-11-09 08:45:00,47.0,34.7,29.17,WSW,245,11.0,30.0,62,0.00,,,0.00,WUHU216DAVISVP2,2013-11-09 13:45:00,
2013-11-09 08:46:00,47.1,34.7,29.17,West,259,18.0,30.0,62,0.00,,,0.00,WUHU216DAVISVP2,2013-11-09 13:46:00,
2013-11-09 08:48:00,47.2,34.8,29.17,SW,226,13.0,30.0,62,0.00,,,0.00,WUHU216DAVISVP2,2013-11-09 13:48:00,
2013-11-09 08:50:00,47.2,35.2,29.17,WSW,237,8.0,29.0,63,0.00,,,0.00,WUHU216DAVISVP2,2013-11-09 13:50:00,
2013-11-09 08:51:00,47.3,35.3,29.17,WSW,256,14.0,29.0,63,0.00,,,0.00,WUHU216DAVISVP2,2013-11-09 13:51:00,
2013-11-09 08:53:00,47.4,35.4,29.17,SSW,212,7.0,29.0,63,0.00,,,0.00,WUHU216DAVISVP2,2013-11-09 13:53:00,
2013-11-09 08:55:00,47.5,35.1,29.17,WSW,239,18.0,29.0,62,0.00,,,0.00,WUHU216DAVISVP2,2013-11-09 13:55:00,
2013-11-09 08:56:00,47.5,35.1,29.17,WSW,247,20.0,29.0,62,0.00,,,0.00,WUHU216DAVISVP2,2013-11-09 13:56:00,
2013-11-09 08:57:00,47.6,35.3,29.17,WSW,256,9.0,29.0,62,0.00,,,0.00,WUHU216DAVISVP2,2013-11-09 13:57:00,
2013-11-09 08:58:00,47.6,35.3,29.17,WSW,249,21.0,29.0,62,0.00,,,0.00,WUHU216DAVISVP2,2013-11-09 13:58:00,
2013-11-09 09:00:00,47.7,35.4,29.17,West,259,16.0,29.0,62,0.00,,,0.00,WUHU216DAVISVP2,2013-11-09 14:00:00,
2013-11-09 09:01:00,47.7,35.4,29.17,WSW,253,13.0,29.0,62,0.00,,,0.00,WUHU216DAVISVP2,2013-11-09 14:01:00,
2013-11-09 09:02:00,47.8,35.5,29.17,WSW,239,11.0,29.0,62,0.00,,,0.00,WUHU216DAVISVP2,2013-11-09 14:02:00,
2013-11-09 09:03:00,47.8,35.5,29.17,WSW,244,12.0,29.0,62,0.00,,,0.00,WUHU216DAVISVP2,2013-11-09 14:03:00,
2013-11-09 09:05:00,47.9,35.6,29.17,WSW,256,14.0,29.0,62,0.00,,,0.00,WUHU216DAVISVP2,2013-11-09 14:05:00,
2013-11-09 09:06:00,47.9,35.6,29.17,SW,235,8.0,29.0,62,0.00,,,0.00,WUHU216DAVISVP2,2013-11-09 14:06:00,
2013-11-09 09:07:00,47.9,35.6,29.17,WSW,241,8.0,29.0,62,0.00,,,0.00,WUHU216DAVISVP2,2013-11-09 14:07:00,
2013-11-09 09:08:00,48.0,35.7,29.17,WSW,253,18.0,29.0,62,0.00,,,0.00,WUHU216DAVISVP2,2013-11-09 14:08:00,
2013-11-09 09:09:00,48.0,35.7,29.17,WSW,245,8.0,29.0,62,0.00,,,0.00,WUHU216DAVISVP2,2013-11-09 14:09:00,
2013-11-09 09:10:00,48.1,35.8,29.17,SW,226,16.0,29.0,62,0.00,,,0.00,WUHU216DAVISVP2,2013-11-09 14:10:00,
2013-11-09 09:11:00,48.1,35.8,29.17,SW,228,9.0,29.0,62,0.00,,,0.00,WUHU216DAVISVP2,2013-11-09 14:11:00,
2013-11-09 09:12:00,48.2,35.9,29.17,WSW,237,19.0,29.0,62,0.00,,,0.00,WUHU216DAVISVP2,2013-11-09 14:12:00,
2013-11-09 09:13:00,48.2,35.9,29.17,WSW,248,22.0,28.0,62,0.00,,,0.00,WUHU216DAVISVP2,2013-11-09 14:13:00,
2013-11-09 09:14:00,48.2,35.9,29.17,WSW,243,19.0,28.0,62,0.00,,,0.00,WUHU216DAVISVP2,2013-11-09 14:14:00,
2013-11-09 09:16:00,48.3,36.0,29.17,WSW,253,11.0,28.0,62,0.00,,,0.00,WUHU216DAVISVP2,2013-11-09 14:16:00,
2013-11-09 09:17:00,48.3,36.0,29.17,WSW,245,12.0,28.0,62,0.00,,,0.00,WUHU216DAVISVP2,2013-11-09 14:17:00,
2013-11-09 09:18:00,48.3,36.0,29.17,West,274,20.0,28.0,62,0.00,,,0.00,WUHU216DAVISVP2,2013-11-09 14:18:00,
2013-11-09 09:19:00,48.3,36.0,29.17,WSW,245,18.0,28.0,62,0.00,,,0.00,WUHU216DAVISVP2,2013-11-09 14:19:00,
2013-11-09 09:21:00,48.4,36.1,29.17,SW,226,11.0,28.0,62,0.00,,,0.00,WUHU216DAVISVP2,2013-11-09 14:21:00,
2013-11-09 09:22:00,48.5,36.2,29.16,SW,220,8.0,31.0,62,0.00,,,0.00,WUHU216DAVISVP2,2013-11-09 14:22:00,
2013-11-09 09:23:00,48.5,36.2,29.16,SSW,212,10.0,31.0,62,0.00,,,0.00,WUHU216DAVISVP2,2013-11-09 14:23:00,
2013-11-09 09:24:00,48.5,36.2,29.17,WSW,249,9.0,31.0,62,0.00,,,0.00,WUHU216DAVISVP2,2013-11-09 14:24:00,
2013-11-09 09:26:00,48.6,36.7,29.17,WSW,253,12.0,31.0,63,0.00,,,0.00,WUHU216DAVISVP2,2013-11-09 14:26:00,
2013-11-09 09:28:00,48.7,36.4,29.16,WSW,254,15.0,32.0,62,0.00,,,0.00,WUHU216DAVISVP2,2013-11-09 14:28:00,
2013-11-09 09:29:00,48.7,36.4,29.17,WSW,241,18.0,32.0,62,0.00,,,0.00,WUHU216DAVISVP2,2013-11-09 14:29:00,
2013-11-09 09:30:00,48.7,36.4,29.17,WSW,243,24.0,32.0,62,0.00,,,0.00,WUHU216DAVISVP2,2013-11-09 14:30:00,
2013-11-09 09:31:00,48.7,36.4,29.16,WSW,254,11.0,32.0,62,0.00,,,0.00,WUHU216DAVISVP2,2013-11-09 14:31:00,
2013-11-09 09:33:00,48.8,36.5,29.16,WSW,249,24.0,32.0,62,0.00,,,0.00,WUHU216DAVISVP2,2013-11-09 14:33:00,
2013-11-09 09:35:00,48.8,36.5,29.16,SSW,213,2.0,32.0,62,0.00,,,0.00,WUHU216DAVISVP2,2013-11-09 14:35:00,
2013-11-09 09:36:00,48.8,36.9,29.16,West,274,16.0,32.0,63,0.00,,,0.00,WUHU216DAVISVP2,2013-11-09 14:36:00,
2013-11-09 09:38:00,48.9,37.0,29.16,West,260,11.0,32.0,63,0.00,,,0.00,WUHU216DAVISVP2,2013-11-09 14:38:00,
2013-11-09 09:40:00,49.0,36.6,29.16,WSW,243,14.0,32.0,62,0.00,,,0.00,WUHU216DAVISVP2,2013-11-09 14:40:00,
2013-11-09 09:41:00,49.0,36.6,29.16,SSW,194,12.0,32.0,62,0.00,,,0.00,WUHU216DAVISVP2,2013-11-09 14:41:00,
2013-11-09 09:42:00,49.0,37.1,29.16,West,280,14.0,32.0,63,0.00,,,0.00,WUHU216DAVISVP2,2013-11-09 14:42:00,
2013-11-09 09:43:00,49.1,37.1,29.16,West,274,19.0,32.0,63,0.00,,,0.00,WUHU216DAVISVP2,2013-11-09 14:43:00,
2013-11-09 09:44:00,49.1,37.1,29.16,West,268,11.0,32.0,63,0.00,,,0.00,WUHU216DAVISVP2,2013-11-09 14:44:00,
2013-11-09 09:45:00,49.1,37.1,29.16,West,276,14.0,31.0,63,0.00,,,0.00,WUHU216DAVISVP2,2013-11-09 14:45:00,
2013-11-09 09:46:00,49.1,36.6,29.16,West,272,12.0,31.0,62,0.00,,,0.00,WUHU216DAVISVP2,2013-11-09 14:46:00,
2013-11-09 09:47:00,49.1,37.0,29.16,WSW,247,10.0,31.0,63,0.00,,,0.00,WUHU216DAVISVP2,2013-11-09 14:47:00,
2013-11-09 09:49:00,49.2,37.1,29.16,SW,235,20.0,31.0,63,0.00,,,0.00,WUHU216DAVISVP2,2013-11-09 14:49:00,
2013-11-09 09:50:00,49.3,37.2,29.16,SW,220,12.0,31.0,63,0.00,,,0.00,WUHU216DAVISVP2,2013-11-09 14:50:00,
2013-11-09 09:51:00,49.4,37.3,29.16,West,270,10.0,31.0,63,0.00,,,0.00,WUHU216DAVISVP2,2013-11-09 14:51:00,
2013-11-09 09:52:00,49.5,37.4,29.16,WSW,243,12.0,31.0,63,0.00,,,0.00,WUHU216DAVISVP2,2013-11-09 14:52:00,
2013-11-09 09:54:00,49.6,37.1,29.16,West,266,21.0,31.0,62,0.00,,,0.00,WUHU216DAVISVP2,2013-11-09 14:54:00,
2013-11-09 09:55:00,49.6,37.1,29.16,West,264,7.0,31.0,62,0.00,,,0.00,WUHU216DAVISVP2,2013-11-09 14:55:00,
2013-11-09 09:56:00,49.6,37.1,29.16,WSW,253,18.0,31.0,62,0.00,,,0.00,WUHU216DAVISVP2,2013-11-09 14:56:00,
2013-11-09 09:57:00,49.7,37.2,29.16,West,264,9.0,31.0,62,0.00,,,0.00,WUHU216DAVISVP2,2013-11-09 14:57:00,
2013-11-09 09:59:00,49.7,37.2,29.16,WSW,249,13.0,31.0,62,0.00,,,0.00,WUHU216DAVISVP2,2013-11-09 14:59:00,
2013-11-09 10:00:00,49.7,37.2,29.16,South,189,12.0,31.0,62,0.00,,,0.00,WUHU216DAVISVP2,2013-11-09 15:00:00,
2013-11-09 10:01:00,49.7,37.6,29.16,South,191,13.0,31.0,63,0.00,,,0.00,WUHU216DAVISVP2,2013-11-09 15:01:00,
2013-11-09 10:02:00,49.7,37.6,29.16,West,266,10.0,26.0,63,0.00,,,0.00,WUHU216DAVISVP2,2013-11-09 15:02:00,
2013-11-09 10:04:00,50.0,38.0,29.16,WSW,237,8.0,24.0,63,0.00,,,0.00,WUHU216DAVISVP2,2013-11-09 15:04:00,
2013-11-09 10:05:00,50.1,38.1,29.16,WSW,242,10.0,24.0,63,0.00,,,0.00,WUHU216DAVISVP2,2013-11-09 15:05:00,
2013-11-09 10:06:00,50.3,38.3,29.16,WSW,258,8.0,24.0,63,0.00,,,0.00,WUHU216DAVISVP2,2013-11-09 15:06:00,
2013-11-09 10:07:00,50.4,38.4,29.16,WSW,253,12.0,24.0,63,0.00,,,0.00,WUHU216DAVISVP2,2013-11-09 15:07:00,
2013-11-09 10:08:00,50.4,38.4,29.16,West,262,8.0,24.0,63,0.00,,,0.00,WUHU216DAVISVP2,2013-11-09 15:08:00,
2013-11-09 10:09:00,50.5,38.5,29.15,WSW,238,12.0,24.0,63,0.00,,,0.00,WUHU216DAVISVP2,2013-11-09 15:09:00,
2013-11-09 10:10:00,50.7,38.7,29.16,West,268,7.0,24.0,63,0.00,,,0.00,WUHU216DAVISVP2,2013-11-09 15:10:00,
2013-11-09 10:11:00,50.7,38.7,29.15,West,280,15.0,24.0,63,0.00,,,0.00,WUHU216DAVISVP2,2013-11-09 15:11:00,
2013-11-09 10:12:00,50.8,38.4,29.15,WSW,251,8.0,25.0,62,0.00,,,0.00,WUHU216DAVISVP2,2013-11-09 15:12:00,
2013-11-09 10:13:00,50.8,38.4,29.15,WNW,283,12.0,25.0,62,0.00,,,0.00,WUHU216DAVISVP2,2013-11-09 15:13:00,
2013-11-09 10:14:00,50.9,38.4,29.15,WSW,243,13.0,25.0,62,0.00,,,0.00,WUHU216DAVISVP2,2013-11-09 15:14:00,
2013-11-09 10:16:00,51.1,38.6,29.15,WSW,258,18.0,25.0,62,0.00,,,0.00,WUHU216DAVISVP2,2013-11-09 15:16:00,
2013-11-09 10:17:00,51.1,38.6,29.15,WSW,247,14.0,25.0,62,0.00,,,0.00,WUHU216DAVISVP2,2013-11-09 15:17:00,
2013-11-09 10:18:00,51.2,38.7,29.15,WSW,246,13.0,25.0,62,0.00,,,0.00,WUHU216DAVISVP2,2013-11-09 15:18:00,
2013-11-09 10:19:00,51.3,38.8,29.15,WSW,253,18.0,25.0,62,0.00,,,0.00,WUHU216DAVISVP2,2013-11-09 15:19:00,
2013-11-09 10:21:00,51.2,38.7,29.15,West,272,15.0,25.0,62,0.00,,,0.00,WUHU216DAVISVP2,2013-11-09 15:21:00,
2013-11-09 10:22:00,51.3,38.8,29.15,West,266,7.0,25.0,62,0.00,,,0.00,WUHU216DAVISVP2,2013-11-09 15:22:00,
2013-11-09 10:23:00,51.3,38.8,29.15,WSW,258,7.0,25.0,62,0.00,,,0.00,WUHU216DAVISVP2,2013-11-09 15:23:00,
2013-11-09 10:24:00,51.5,39.0,29.15,SW,228,6.0,25.0,62,0.00,,,0.00,WUHU216DAVISVP2,2013-11-09 15:24:00,
2013-11-09 10:26:00,51.6,38.7,29.15,WSW,251,12.0,25.0,61,0.00,,,0.00,WUHU216DAVISVP2,2013-11-09 15:26:00,
2013-11-09 10:27:00,51.6,38.7,29.15,WSW,245,18.0,25.0,61,0.00,,,0.00,WUHU216DAVISVP2,2013-11-09 15:27:00,
2013-11-09 10:28:00,51.6,38.7,29.15,WSW,256,20.0,25.0,61,0.00,,,0.00,WUHU216DAVISVP2,2013-11-09 15:28:00,
2013-11-09 10:29:00,51.7,39.2,29.15,WSW,254,14.0,25.0,62,0.00,,,0.00,WUHU216DAVISVP2,2013-11-09 15:29:00,
2013-11-09 10:32:00,51.6,38.7,29.15,West,270,9.0,25.0,61,0.00,,,0.00,WUHU216DAVISVP2,2013-11-09 15:32:00,
2013-11-09 10:33:00,51.7,39.2,29.15,WSW,256,8.0,25.0,62,0.00,,,0.00,WUHU216DAVISVP2,2013-11-09 15:33:00,
2013-11-09 10:35:00,52.0,39.0,29.15,WSW,240,16.0,25.0,61,0.00,,,0.00,WUHU216DAVISVP2,2013-11-09 15:35:00,
2013-11-09 10:37:00,51.9,38.9,29.15,West,268,15.0,30.0,61,0.00,,,0.00,WUHU216DAVISVP2,2013-11-09 15:37:00,
2013-11-09 10:38:00,51.9,38.9,29.15,WNW,283,18.0,30.0,61,0.00,,,0.00,WUHU216DAVISVP2,2013-11-09 15:38:00,
2013-11-09 10:40:00,51.9,38.9,29.15,WSW,256,15.0,30.0,61,0.00,,,0.00,WUHU216DAVISVP2,2013-11-09 15:40:00,
2013-11-09 10:42:00,52.1,39.1,29.15,WSW,244,16.0,32.0,61,0.00,,,0.00,WUHU216DAVISVP2,2013-11-09 15:42:00,
2013-11-09 10:43:00,52.1,39.1,29.15,West,273,18.0,32.0,61,0.00,,,0.00,WUHU216DAVISVP2,2013-11-09 15:43:00,
2013-11-09 10:44:00,52.1,39.1,29.15,WSW,254,12.0,32.0,61,0.00,,,0.00,WUHU216DAVISVP2,2013-11-09 15:44:00,
2013-11-09 10:45:00,52.2,39.1,29.15,WSW,258,22.0,32.0,61,0.00,,,0.00,WUHU216DAVISVP2,2013-11-09 15:45:00,
2013-11-09 10:47:00,52.3,39.7,29.15,West,263,20.0,32.0,62,0.00,,,0.00,WUHU216DAVISVP2,2013-11-09 15:47:00,
2013-11-09 10:48:00,52.4,39.3,29.15,West,260,22.0,32.0,61,0.00,,,0.00,WUHU216DAVISVP2,2013-11-09 15:48:00,
2013-11-09 10:49:00,52.4,39.3,29.15,West,268,8.0,32.0,61,0.00,,,0.00,WUHU216DAVISVP2,2013-11-09 15:49:00,
2013-11-09 10:50:00,52.4,39.8,29.15,WSW,256,15.0,32.0,62,0.00,,,0.00,WUHU216DAVISVP2,2013-11-09 15:50:00,
2013-11-09 10:53:00,52.6,39.5,29.15,WSW,258,19.0,32.0,61,0.00,,,0.00,WUHU216DAVISVP2,2013-11-09 15:53:00,
2013-11-09 10:54:00,52.6,39.5,29.15,WSW,249,15.0,32.0,61,0.00,,,0.00,WUHU216DAVISVP2,2013-11-09 15:54:00,
2013-11-09 10:55:00,52.7,39.6,29.15,West,280,13.0,32.0,61,0.00,,,0.00,WUHU216DAVISVP2,2013-11-09 15:55:00,
2013-11-09 10:58:00,52.9,39.8,29.14,WNW,285,24.0,32.0,61,0.00,,,0.00,WUHU216DAVISVP2,2013-11-09 15:58:00,
2013-11-09 10:59:00,52.9,39.8,29.14,WSW,258,25.0,28.0,61,0.00,,,0.00,WUHU216DAVISVP2,2013-11-09 15:59:00,
2013-11-09 11:00:00,52.8,39.3,29.15,WSW,247,15.0,31.0,60,0.00,,,0.00,WUHU216DAVISVP2,2013-11-09 16:00:00,
2013-11-09 11:03:00,52.8,39.3,29.15,WSW,258,18.0,31.0,60,0.00,,,0.00,WUHU216DAVISVP2,2013-11-09 16:03:00,
2013-11-09 11:04:00,52.7,39.6,29.15,WSW,253,18.0,31.0,61,0.00,,,0.00,WUHU216DAVISVP2,2013-11-09 16:04:00,
2013-11-09 11:05:00,52.9,39.8,29.15,WSW,251,11.0,31.0,61,0.00,,,0.00,WUHU216DAVISVP2,2013-11-09 16:05:00,
2013-11-09 11:06:00,53.0,39.9,29.15,West,266,11.0,31.0,61,0.00,,,0.00,WUHU216DAVISVP2,2013-11-09 16:06:00,
2013-11-09 11:08:00,53.2,40.1,29.15,West,266,7.0,31.0,61,0.00,,,0.00,WUHU216DAVISVP2,2013-11-09 16:08:00,
2013-11-09 11:09:00,53.2,40.1,29.14,WSW,247,20.0,31.0,61,0.00,,,0.00,WUHU216DAVISVP2,2013-11-09 16:09:00,
2013-11-09 11:10:00,53.2,39.7,29.14,WSW,257,18.0,31.0,60,0.00,,,0.00,WUHU216DAVISVP2,2013-11-09 16:10:00,
2013-11-09 11:11:00,53.0,39.6,29.15,WNW,285,11.0,34.0,60,0.00,,,0.00,WUHU216DAVISVP2,2013-11-09 16:11:00,
2013-11-09 11:13:00,52.9,39.9,29.15,WSW,251,19.0,34.0,61,0.00,,,0.00,WUHU216DAVISVP2,2013-11-09 16:13:00,
2013-11-09 11:15:00,53.0,40.0,29.15,West,262,12.0,34.0,61,0.00,,,0.00,WUHU216DAVISVP2,2013-11-09 16:15:00,
2013-11-09 11:16:00,53.0,40.0,29.15,WSW,258,10.0,34.0,61,0.00,,,0.00,WUHU216DAVISVP2,2013-11-09 16:16:00,
2013-11-09 11:19:00,53.2,40.2,29.15,WSW,239,11.0,34.0,61,0.00,,,0.00,WUHU216DAVISVP2,2013-11-09 16:19:00,
2013-11-09 11:20:00,53.2,40.2,29.14,SW,228,18.0,34.0,61,0.00,,,0.00,WUHU216DAVISVP2,2013-11-09 16:20:00,
2013-11-09 11:21:00,53.2,40.2,29.14,WSW,258,19.0,34.0,61,0.00,,,0.00,WUHU216DAVISVP2,2013-11-09 16:21:00,
2013-11-09 11:24:00,53.2,40.2,29.14,WSW,256,11.0,34.0,61,0.00,,,0.00,WUHU216DAVISVP2,2013-11-09 16:24:00,
2013-11-09 11:25:00,53.3,40.3,29.14,West,272,8.0,34.0,61,0.00,,,0.00,WUHU216DAVISVP2,2013-11-09 16:25:00,
2013-11-09 11:26:00,53.3,40.7,29.14,West,266,21.0,34.0,62,0.00,,,0.00,WUHU216DAVISVP2,2013-11-09 16:26:00,
2013-11-09 11:27:00,53.4,40.4,29.14,WSW,247,24.0,34.0,61,0.00,,,0.00,WUHU216DAVISVP2,2013-11-09 16:27:00,
2013-11-09 11:29:00,53.3,40.3,29.14,West,266,16.0,34.0,61,0.00,,,0.00,WUHU216DAVISVP2,2013-11-09 16:29:00,
2013-11-09 11:30:00,53.5,40.5,29.14,West,278,22.0,27.0,61,0.00,,,0.00,WUHU216DAVISVP2,2013-11-09 16:30:00,
2013-11-09 11:31:00,53.4,40.4,29.14,WSW,249,12.0,27.0,61,0.00,,,0.00,WUHU216DAVISVP2,2013-11-09 16:31:00,
2013-11-09 11:32:00,53.4,40.4,29.14,West,268,16.0,27.0,61,0.00,,,0.00,WUHU216DAVISVP2,2013-11-09 16:32:00,
2013-11-09 11:34:00,53.6,40.6,29.14,West,261,24.0,27.0,61,0.00,,,0.00,WUHU216DAVISVP2,2013-11-09 16:34:00,
2013-11-09 11:36:00,53.5,40.5,29.14,West,280,18.0,27.0,61,0.00,,,0.00,WUHU216DAVISVP2,2013-11-09 16:36:00,
2013-11-09 11:37:00,53.5,40.5,29.14,WSW,253,19.0,27.0,61,0.00,,,0.00,WUHU216DAVISVP2,2013-11-09 16:37:00,
2013-11-09 11:40:00,53.5,40.5,29.14,West,276,15.0,27.0,61,0.00,,,0.00,WUHU216DAVISVP2,2013-11-09 16:40:00,
2013-11-09 11:42:00,53.6,40.6,29.14,West,269,20.0,30.0,61,0.00,,,0.00,WUHU216DAVISVP2,2013-11-09 16:42:00,
2013-11-09 11:44:00,53.6,40.6,29.14,WNW,296,13.0,30.0,61,0.00,,,0.00,WUHU216DAVISVP2,2013-11-09 16:44:00,
2013-11-09 11:45:00,53.7,40.7,29.14,West,271,18.0,30.0,61,0.00,,,0.00,WUHU216DAVISVP2,2013-11-09 16:45:00,
2013-11-09 11:47:00,53.9,40.9,29.14,West,260,13.0,30.0,61,0.00,,,0.00,WUHU216DAVISVP2,2013-11-09 16:47:00,
2013-11-09 11:48:00,54.0,40.5,29.14,WSW,258,25.0,30.0,60,0.00,,,0.00,WUHU216DAVISVP2,2013-11-09 16:48:00,
2013-11-09 11:49:00,54.1,40.6,29.13,West,268,16.0,30.0,60,0.00,,,0.00,WUHU216DAVISVP2,2013-11-09 16:49:00,
2013-11-09 11:50:00,54.2,41.2,29.14,WSW,243,25.0,30.0,61,0.00,,,0.00,WUHU216DAVISVP2,2013-11-09 16:50:00,
2013-11-09 11:52:00,54.4,40.9,29.13,West,274,7.0,30.0,60,0.00,,,0.00,WUHU216DAVISVP2,2013-11-09 16:52:00,
2013-11-09 11:53:00,54.4,40.9,29.13,SSW,196,13.0,30.0,60,0.00,,,0.00,WUHU216DAVISVP2,2013-11-09 16:53:00,
2013-11-09 11:54:00,54.4,40.9,29.13,WSW,255,16.0,30.0,60,0.00,,,0.00,WUHU216DAVISVP2,2013-11-09 16:54:00,
2013-11-09 11:55:00,54.3,40.4,29.13,West,271,28.0,30.0,59,0.00,,,0.00,WUHU216DAVISVP2,2013-11-09 16:55:00,
2013-11-09 11:57:00,54.2,40.7,29.13,West,266,25.0,30.0,60,0.00,,,0.00,WUHU216DAVISVP2,2013-11-09 16:57:00,
2013-11-09 11:58:00,54.2,40.6,29.13,West,268,16.0,30.0,60,0.00,,,0.00,WUHU216DAVISVP2,2013-11-09 16:58:00,
2013-11-09 11:59:00,54.2,40.6,29.13,West,272,13.0,30.0,60,0.00,,,0.00,WUHU216DAVISVP2,2013-11-09 16:59:00,
2013-11-09 12:01:00,54.4,40.8,29.13,WSW,245,10.0,30.0,60,0.00,,,0.00,WUHU216DAVISVP2,2013-11-09 17:01:00,
2013-11-09 12:02:00,54.7,41.1,29.13,WSW,255,16.0,30.0,60,0.00,,,0.00,WUHU216DAVISVP2,2013-11-09 17:02:00,
2013-11-09 12:03:00,54.7,41.1,29.13,WSW,249,11.0,30.0,60,0.00,,,0.00,WUHU216DAVISVP2,2013-11-09 17:03:00,
2013-11-09 12:04:00,54.8,41.2,29.13,West,266,11.0,30.0,60,0.00,,,0.00,WUHU216DAVISVP2,2013-11-09 17:04:00,
2013-11-09 12:05:00,54.8,41.2,29.13,West,267,15.0,30.0,60,0.00,,,0.00,WUHU216DAVISVP2,2013-11-09 17:05:00,
2013-11-09 12:06:00,54.8,41.2,29.13,West,260,21.0,30.0,60,0.00,,,0.00,WUHU216DAVISVP2,2013-11-09 17:06:00,
2013-11-09 12:08:00,54.8,41.2,29.13,WNW,283,10.0,30.0,60,0.00,,,0.00,WUHU216DAVISVP2,2013-11-09 17:08:00,
2013-11-09 12:09:00,55.0,40.9,29.13,WSW,245,16.0,30.0,59,0.00,,,0.00,WUHU216DAVISVP2,2013-11-09 17:09:00,
2013-11-09 12:10:00,55.0,40.9,29.13,WSW,243,30.0,31.0,59,0.00,,,0.00,WUHU216DAVISVP2,2013-11-09 17:10:00,
2013-11-09 12:11:00,55.0,40.9,29.13,WSW,256,18.0,31.0,59,0.00,,,0.00,WUHU216DAVISVP2,2013-11-09 17:11:00,
2013-11-09 12:13:00,55.0,40.9,29.13,WSW,243,13.0,31.0,59,0.00,,,0.00,WUHU216DAVISVP2,2013-11-09 17:13:00,
2013-11-09 12:14:00,55.0,40.9,29.13,WSW,248,20.0,31.0,59,0.00,,,0.00,WUHU216DAVISVP2,2013-11-09 17:14:00,
2013-11-09 12:15:00,55.0,40.9,29.13,WNW,289,28.0,31.0,59,0.00,,,0.00,WUHU216DAVISVP2,2013-11-09 17:15:00,
2013-11-09 12:16:00,55.0,40.9,29.13,SW,217,25.0,31.0,59,0.00,,,0.00,WUHU216DAVISVP2,2013-11-09 17:16:00,
2013-11-09 12:18:00,55.1,41.1,29.13,WSW,253,21.0,31.0,59,0.00,,,0.00,WUHU216DAVISVP2,2013-11-09 17:18:00,
2013-11-09 12:19:00,55.1,41.1,29.13,NW,315,13.0,31.0,59,0.00,,,0.00,WUHU216DAVISVP2,2013-11-09 17:19:00,
2013-11-09 12:20:00,55.1,41.1,29.13,West,272,19.0,31.0,59,0.00,,,0.00,WUHU216DAVISVP2,2013-11-09 17:20:00,
2013-11-09 12:21:00,55.1,41.1,29.13,West,262,14.0,31.0,59,0.00,,,0.00,WUHU216DAVISVP2,2013-11-09 17:21:00,
2013-11-09 12:23:00,55.2,41.2,29.12,West,272,20.0,31.0,59,0.00,,,0.00,WUHU216DAVISVP2,2013-11-09 17:23:00,
2013-11-09 12:24:00,55.2,41.2,29.12,West,268,12.0,31.0,59,0.00,,,0.00,WUHU216DAVISVP2,2013-11-09 17:24:00,
2013-11-09 12:25:00,55.3,41.3,29.12,West,262,20.0,31.0,59,0.00,,,0.00,WUHU216DAVISVP2,2013-11-09 17:25:00,
2013-11-09 12:26:00,55.3,41.3,29.12,West,264,23.0,31.0,59,0.00,,,0.00,WUHU216DAVISVP2,2013-11-09 17:26:00,
2013-11-09 12:28:00,55.5,41.5,29.12,WSW,258,16.0,31.0,59,0.00,,,0.00,WUHU216DAVISVP2,2013-11-09 17:28:00,
2013-11-09 12:30:00,55.5,41.5,29.12,West,266,14.0,30.0,59,0.00,,,0.00,WUHU216DAVISVP2,2013-11-09 17:30:00,
2013-11-09 12:31:00,55.5,41.5,29.12,West,272,10.0,30.0,59,0.00,,,0.00,WUHU216DAVISVP2,2013-11-09 17:31:00,
2013-11-09 12:33:00,55.8,41.8,29.12,West,268,13.0,29.0,59,0.00,,,0.00,WUHU216DAVISVP2,2013-11-09 17:33:00,
2013-11-09 12:35:00,55.9,41.4,29.11,West,273,19.0,29.0,58,0.00,,,0.00,WUHU216DAVISVP2,2013-11-09 17:35:00,
2013-11-09 12:36:00,55.9,41.4,29.11,West,260,15.0,29.0,58,0.00,,,0.00,WUHU216DAVISVP2,2013-11-09 17:36:00,
2013-11-09 12:39:00,56.1,41.6,29.11,West,259,18.0,36.0,58,0.00,,,0.00,WUHU216DAVISVP2,2013-11-09 17:39:00,
2013-11-09 12:40:00,56.2,41.7,29.11,SW,223,11.0,36.0,58,0.00,,,0.00,WUHU216DAVISVP2,2013-11-09 17:40:00,
2013-11-09 12:41:00,56.2,41.7,29.11,West,270,13.0,36.0,58,0.00,,,0.00,WUHU216DAVISVP2,2013-11-09 17:41:00,
2013-11-09 12:44:00,56.3,41.8,29.11,West,261,12.0,36.0,58,0.00,,,0.00,WUHU216DAVISVP2,2013-11-09 17:44:00,
2013-11-09 12:45:00,56.5,42.0,29.11,West,263,20.0,36.0,58,0.00,,,0.00,WUHU216DAVISVP2,2013-11-09 17:45:00,
2013-11-09 12:46:00,56.4,41.9,29.11,WSW,245,7.0,36.0,58,0.00,,,0.00,WUHU216DAVISVP2,2013-11-09 17:46:00,
2013-11-09 12:47:00,56.5,42.0,29.11,West,267,14.0,36.0,58,0.00,,,0.00,WUHU216DAVISVP2,2013-11-09 17:47:00,
2013-11-09 12:49:00,56.4,41.4,29.11,WNW,285,15.0,36.0,57,0.00,,,0.00,WUHU216DAVISVP2,2013-11-09 17:49:00,
2013-11-09 12:50:00,56.4,41.4,29.11,West,268,21.0,36.0,57,0.00,,,0.00,WUHU216DAVISVP2,2013-11-09 17:50:00,
2013-11-09 12:51:00,56.3,41.3,29.11,WSW,251,20.0,36.0,57,0.00,,,0.00,WUHU216DAVISVP2,2013-11-09 17:51:00,
2013-11-09 12:52:00,56.3,41.8,29.11,West,279,19.0,36.0,58,0.00,,,0.00,WUHU216DAVISVP2,2013-11-09 17:52:00,
2013-11-09 12:54:00,56.4,41.9,29.11,WSW,242,12.0,36.0,58,0.00,,,0.00,WUHU216DAVISVP2,2013-11-09 17:54:00,
2013-11-09 12:55:00,56.6,42.5,29.11,West,274,16.0,36.0,59,0.00,,,0.00,WUHU216DAVISVP2,2013-11-09 17:55:00,
2013-11-09 12:56:00,56.7,42.2,29.11,West,276,14.0,30.0,58,0.00,,,0.00,WUHU216DAVISVP2,2013-11-09 17:56:00,
2013-11-09 12:57:00,56.7,42.2,29.11,West,264,21.0,30.0,58,0.00,,,0.00,WUHU216DAVISVP2,2013-11-09 17:57:00,
2013-11-09 12:58:00,56.6,41.6,29.11,WSW,237,16.0,30.0,57,0.00,,,0.00,WUHU216DAVISVP2,2013-11-09 17:58:00,
2013-11-09 12:59:00,56.4,41.4,29.11,West,268,18.0,29.0,57,0.00,,,0.00,WUHU216DAVISVP2,2013-11-09 17:59:00,
2013-11-09 13:01:00,56.3,41.8,29.11,West,271,13.0,29.0,58,0.00,,,0.00,WUHU216DAVISVP2,2013-11-09 18:01:00,
2013-11-09 13:03:00,56.4,41.4,29.11,WSW,248,16.0,32.0,57,0.00,,,0.00,WUHU216DAVISVP2,2013-11-09 18:03:00,
2013-11-09 13:04:00,56.5,42.0,29.10,West,261,15.0,32.0,58,0.00,,,0.00,WUHU216DAVISVP2,2013-11-09 18:04:00,
2013-11-09 13:06:00,56.6,42.1,29.11,West,271,21.0,32.0,58,0.00,,,0.00,WUHU216DAVISVP2,2013-11-09 18:06:00,
2013-11-09 13:08:00,56.8,42.3,29.10,WSW,251,14.0,32.0,58,0.00,,,0.00,WUHU216DAVISVP2,2013-11-09 18:08:00,
2013-11-09 13:10:00,56.8,41.8,29.10,WNW,298,15.0,32.0,57,0.00,,,0.00,WUHU216DAVISVP2,2013-11-09 18:10:00,
2013-11-09 13:11:00,56.8,41.8,29.10,WSW,251,13.0,32.0,57,0.00,,,0.00,WUHU216DAVISVP2,2013-11-09 18:11:00,
2013-11-09 13:12:00,56.9,42.4,29.10,WNW,283,9.0,32.0,58,0.00,,,0.00,WUHU216DAVISVP2,2013-11-09 18:12:00,
2013-11-09 13:13:00,57.1,42.6,29.10,West,273,11.0,32.0,58,0.00,,,0.00,WUHU216DAVISVP2,2013-11-09 18:13:00,
2013-11-09 13:14:00,57.2,42.7,29.10,WNW,295,16.0,32.0,58,0.00,,,0.00,WUHU216DAVISVP2,2013-11-09 18:14:00,
2013-11-09 13:15:00,57.2,42.2,29.10,West,276,23.0,32.0,57,0.00,,,0.00,WUHU216DAVISVP2,2013-11-09 18:15:00,
2013-11-09 13:17:00,57.0,41.5,29.10,WNW,284,9.0,32.0,56,0.00,,,0.00,WUHU216DAVISVP2,2013-11-09 18:17:00,
2013-11-09 13:18:00,57.0,42.0,29.10,West,266,15.0,32.0,57,0.00,,,0.00,WUHU216DAVISVP2,2013-11-09 18:18:00,
2013-11-09 13:19:00,57.1,42.1,29.10,WNW,297,10.0,32.0,57,0.00,,,0.00,WUHU216DAVISVP2,2013-11-09 18:19:00,
2013-11-09 13:20:00,57.2,42.2,29.10,West,270,10.0,32.0,57,0.00,,,0.00,WUHU216DAVISVP2,2013-11-09 18:20:00,
2013-11-09 13:21:00,57.2,42.2,29.10,West,273,16.0,32.0,57,0.00,,,0.00,WUHU216DAVISVP2,2013-11-09 18:21:00,
2013-11-09 13:22:00,57.3,41.8,29.10,WSW,256,23.0,30.0,56,0.00,,,0.00,WUHU216DAVISVP2,2013-11-09 18:22:00,
2013-11-09 13:24:00,57.2,41.2,29.10,West,264,27.0,32.0,55,0.00,,,0.00,WUHU216DAVISVP2,2013-11-09 18:24:00,
2013-11-09 13:26:00,57.2,41.7,29.10,WSW,248,19.0,32.0,56,0.00,,,0.00,WUHU216DAVISVP2,2013-11-09 18:26:00,
2013-11-09 13:27:00,57.3,41.8,29.11,WSW,247,13.0,32.0,56,0.00,,,0.00,WUHU216DAVISVP2,2013-11-09 18:27:00,
2013-11-09 13:29:00,57.4,41.9,29.10,West,264,15.0,32.0,56,0.00,,,0.00,WUHU216DAVISVP2,2013-11-09 18:29:00,
2013-11-09 13:31:00,57.4,41.9,29.10,West,260,22.0,32.0,56,0.00,,,0.00,WUHU216DAVISVP2,2013-11-09 18:31:00,
2013-11-09 13:33:00,57.4,41.4,29.10,WSW,258,23.0,32.0,55,0.00,,,0.00,WUHU216DAVISVP2,2013-11-09 18:33:00,
2013-11-09 13:34:00,57.5,42.0,29.11,West,267,13.0,32.0,56,0.00,,,0.00,WUHU216DAVISVP2,2013-11-09 18:34:00,
2013-11-09 13:36:00,57.6,42.1,29.11,WSW,249,15.0,32.0,56,0.00,,,0.00,WUHU216DAVISVP2,2013-11-09 18:36:00,
2013-11-09 13:38:00,57.7,42.2,29.11,West,277,21.0,32.0,56,0.00,,,0.00,WUHU216DAVISVP2,2013-11-09 18:38:00,
2013-11-09 13:39:00,57.8,41.8,29.11,West,276,14.0,32.0,55,0.00,,,0.00,WUHU216DAVISVP2,2013-11-09 18:39:00,
2013-11-09 13:41:00,57.8,41.8,29.11,West,280,11.0,32.0,55,0.00,,,0.00,WUHU216DAVISVP2,2013-11-09 18:41:00,
2013-11-09 13:43:00,57.8,41.8,29.11,West,260,15.0,30.0,55,0.00,,,0.00,WUHU216DAVISVP2,2013-11-09 18:43:00,
2013-11-09 13:44:00,57.9,42.4,29.10,West,268,11.0,30.0,56,0.00,,,0.00,WUHU216DAVISVP2,2013-11-09 18:44:00,
2013-11-09 13:45:00,58.1,42.0,29.11,West,274,29.0,30.0,55,0.00,,,0.00,WUHU216DAVISVP2,2013-11-09 18:45:00,
2013-11-09 13:46:00,58.1,42.0,29.11,West,262,25.0,30.0,55,0.00,,,0.00,WUHU216DAVISVP2,2013-11-09 18:46:00,
2013-11-09 13:47:00,58.0,41.9,29.11,West,268,21.0,30.0,55,0.00,,,0.00,WUHU216DAVISVP2,2013-11-09 18:47:00,
2013-11-09 13:48:00,57.9,41.3,29.11,West,269,15.0,30.0,54,0.00,,,0.00,WUHU216DAVISVP2,2013-11-09 18:48:00,
2013-11-09 13:49:00,58.0,41.9,29.11,West,281,15.0,30.0,55,0.00,,,0.00,WUHU216DAVISVP2,2013-11-09 18:49:00,
2013-11-09 13:51:00,58.0,41.4,29.11,West,270,19.0,30.0,54,0.00,,,0.00,WUHU216DAVISVP2,2013-11-09 18:51:00,
2013-11-09 13:52:00,58.0,41.9,29.10,West,260,20.0,30.0,55,0.00,,,0.00,WUHU216DAVISVP2,2013-11-09 18:52:00,
2013-11-09 13:53:00,58.1,42.0,29.10,West,262,20.0,30.0,55,0.00,,,0.00,WUHU216DAVISVP2,2013-11-09 18:53:00,
2013-11-09 13:54:00,57.9,41.3,29.10,West,265,13.0,31.0,54,0.00,,,0.00,WUHU216DAVISVP2,2013-11-09 18:54:00,
2013-11-09 13:56:00,57.9,41.3,29.11,WNW,283,11.0,31.0,54,0.00,,,0.00,WUHU216DAVISVP2,2013-11-09 18:56:00,
2013-11-09 13:57:00,57.9,41.8,29.11,WNW,283,14.0,31.0,55,0.00,,,0.00,WUHU216DAVISVP2,2013-11-09 18:57:00,
2013-11-09 13:58:00,57.9,41.8,29.10,WSW,255,27.0,34.0,55,0.00,,,0.00,WUHU216DAVISVP2,2013-11-09 18:58:00,
2013-11-09 14:00:00,57.8,41.3,29.10,WSW,257,25.0,34.0,54,0.00,,,0.00,WUHU216DAVISVP2,2013-11-09 19:00:00,
2013-11-09 14:01:00,57.8,41.7,29.10,West,273,15.0,34.0,55,0.00,,,0.00,WUHU216DAVISVP2,2013-11-09 19:01:00,
2013-11-09 14:02:00,58.0,41.9,29.10,WSW,237,19.0,34.0,55,0.00,,,0.00,WUHU216DAVISVP2,2013-11-09 19:02:00,
2013-11-09 14:03:00,58.2,41.6,29.10,West,266,23.0,34.0,54,0.00,,,0.00,WUHU216DAVISVP2,2013-11-09 19:03:00,
2013-11-09 14:04:00,58.2,41.6,29.10,West,260,21.0,34.0,54,0.00,,,0.00,WUHU216DAVISVP2,2013-11-09 19:04:00,
2013-11-09 14:05:00,58.2,41.6,29.10,West,266,12.0,34.0,54,0.00,,,0.00,WUHU216DAVISVP2,2013-11-09 19:05:00,
2013-11-09 14:06:00,58.3,42.2,29.11,WNW,297,14.0,34.0,55,0.00,,,0.00,WUHU216DAVISVP2,2013-11-09 19:06:00,
2013-11-09 14:07:00,58.3,42.2,29.10,West,277,24.0,34.0,55,0.00,,,0.00,WUHU216DAVISVP2,2013-11-09 19:07:00,
2013-11-09 14:08:00,58.2,41.6,29.11,West,278,14.0,34.0,54,0.00,,,0.00,WUHU216DAVISVP2,2013-11-09 19:08:00,
2013-11-09 14:09:00,58.1,41.6,29.10,West,264,18.0,34.0,54,0.00,,,0.00,WUHU216DAVISVP2,2013-11-09 19:09:00,
2013-11-09 14:10:00,58.1,41.6,29.10,WSW,247,16.0,34.0,54,0.00,,,0.00,WUHU216DAVISVP2,2013-11-09 19:10:00,
2013-11-09 14:11:00,58.1,42.1,29.10,West,261,16.0,34.0,55,0.00,,,0.00,WUHU216DAVISVP2,2013-11-09 19:11:00,
2013-11-09 14:12:00,58.1,41.6,29.10,West,270,16.0,34.0,54,0.00,,,0.00,WUHU216DAVISVP2,2013-11-09 19:12:00,
2013-11-09 14:13:00,58.2,41.7,29.10,West,261,25.0,34.0,54,0.00,,,0.00,WUHU216DAVISVP2,2013-11-09 19:13:00,
2013-11-09 14:14:00,58.2,41.7,29.10,WSW,242,24.0,34.0,54,0.00,,,0.00,WUHU216DAVISVP2,2013-11-09 19:14:00,
2013-11-09 14:15:00,58.2,41.7,29.10,WNW,289,18.0,34.0,54,0.00,,,0.00,WUHU216DAVISVP2,2013-11-09 19:15:00,
2013-11-09 14:16:00,58.2,42.2,29.11,West,263,25.0,34.0,55,0.00,,,0.00,WUHU216DAVISVP2,2013-11-09 19:16:00,
2013-11-09 14:17:00,58.2,42.2,29.11,West,272,15.0,34.0,55,0.00,,,0.00,WUHU216DAVISVP2,2013-11-09 19:17:00,
2013-11-09 14:18:00,58.2,42.2,29.10,WNW,298,30.0,32.0,55,0.00,,,0.00,WUHU216DAVISVP2,2013-11-09 19:18:00,
2013-11-09 14:19:00,58.2,42.2,29.10,West,275,13.0,32.0,55,0.00,,,0.00,WUHU216DAVISVP2,2013-11-09 19:19:00,
2013-11-09 14:20:00,58.4,42.3,29.10,West,275,22.0,32.0,55,0.00,,,0.00,WUHU216DAVISVP2,2013-11-09 19:20:00,
2013-11-09 14:21:00,58.4,42.3,29.10,WNW,288,16.0,32.0,55,0.00,,,0.00,WUHU216DAVISVP2,2013-11-09 19:21:00,
2013-11-09 14:22:00,58.4,41.8,29.10,WNW,283,11.0,32.0,54,0.00,,,0.00,WUHU216DAVISVP2,2013-11-09 19:22:00,
2013-11-09 14:23:00,58.5,41.9,29.11,West,278,21.0,32.0,54,0.00,,,0.00,WUHU216DAVISVP2,2013-11-09 19:23:00,
2013-11-09 14:24:00,58.5,41.9,29.11,West,267,21.0,32.0,54,0.00,,,0.00,WUHU216DAVISVP2,2013-11-09 19:24:00,
2013-11-09 14:26:00,58.6,42.1,29.11,West,272,10.0,32.0,54,0.00,,,0.00,WUHU216DAVISVP2,2013-11-09 19:26:00,
2013-11-09 14:27:00,58.6,42.1,29.11,West,278,19.0,32.0,54,0.00,,,0.00,WUHU216DAVISVP2,2013-11-09 19:27:00,
2013-11-09 14:28:00,58.7,42.2,29.10,West,276,13.0,32.0,54,0.00,,,0.00,WUHU216DAVISVP2,2013-11-09 19:28:00,
2013-11-09 14:29:00,58.8,42.3,29.11,WSW,247,11.0,32.0,54,0.00,,,0.00,WUHU216DAVISVP2,2013-11-09 19:29:00,
2013-11-09 14:31:00,58.8,42.3,29.10,West,276,24.0,32.0,54,0.00,,,0.00,WUHU216DAVISVP2,2013-11-09 19:31:00,
2013-11-09 14:33:00,58.7,41.7,29.10,West,270,19.0,30.0,53,0.00,,,0.00,WUHU216DAVISVP2,2013-11-09 19:33:00,
2013-11-09 14:34:00,58.8,42.3,29.11,WSW,258,11.0,30.0,54,0.00,,,0.00,WUHU216DAVISVP2,2013-11-09 19:34:00,
2013-11-09 14:36:00,59.0,42.4,29.10,West,260,16.0,30.0,54,0.00,,,0.00,WUHU216DAVISVP2,2013-11-09 19:36:00,
2013-11-09 14:38:00,58.9,41.8,29.10,West,265,14.0,29.0,53,0.00,,,0.00,WUHU216DAVISVP2,2013-11-09 19:38:00,
2013-11-09 14:39:00,58.9,41.8,29.10,West,265,16.0,29.0,53,0.00,,,0.00,WUHU216DAVISVP2,2013-11-09 19:39:00,
2013-11-09 14:41:00,59.0,42.4,29.10,WNW,285,14.0,29.0,54,0.00,,,0.00,WUHU216DAVISVP2,2013-11-09 19:41:00,
2013-11-09 14:43:00,59.0,41.9,29.11,WNW,290,15.0,29.0,53,0.00,,,0.00,WUHU216DAVISVP2,2013-11-09 19:43:00,
2013-11-09 14:44:00,59.0,41.9,29.11,West,270,7.0,29.0,53,0.00,,,0.00,WUHU216DAVISVP2,2013-11-09 19:44:00,
2013-11-09 14:45:00,59.1,42.5,29.11,WNW,291,16.0,29.0,54,0.00,,,0.00,WUHU216DAVISVP2,2013-11-09 19:45:00,
2013-11-09 14:47:00,59.0,41.9,29.11,West,277,16.0,29.0,53,0.00,,,0.00,WUHU216DAVISVP2,2013-11-09 19:47:00,
2013-11-09 14:48:00,58.9,42.3,29.10,West,281,10.0,29.0,54,0.00,,,0.00,WUHU216DAVISVP2,2013-11-09 19:48:00,
2013-11-09 14:49:00,58.9,42.3,29.10,WNW,285,21.0,29.0,54,0.00,,,0.00,WUHU216DAVISVP2,2013-11-09 19:49:00,
2013-11-09 14:50:00,59.1,42.5,29.10,West,271,12.0,29.0,54,0.00,,,0.00,WUHU216DAVISVP2,2013-11-09 19:50:00,
2013-11-09 14:52:00,59.2,42.1,29.10,WNW,283,20.0,29.0,53,0.00,,,0.00,WUHU216DAVISVP2,2013-11-09 19:52:00,
2013-11-09 14:54:00,59.1,42.0,29.10,West,281,19.0,29.0,53,0.00,,,0.00,WUHU216DAVISVP2,2013-11-09 19:54:00,
2013-11-09 14:55:00,59.2,42.1,29.10,WSW,243,14.0,29.0,53,0.00,,,0.00,WUHU216DAVISVP2,2013-11-09 19:55:00,
2013-11-09 14:57:00,59.3,41.7,29.11,West,278,25.0,32.0,52,0.00,,,0.00,WUHU216DAVISVP2,2013-11-09 19:57:00,
2013-11-09 14:59:00,59.2,41.6,29.10,WSW,258,13.0,32.0,52,0.00,,,0.00,WUHU216DAVISVP2,2013-11-09 19:59:00,
2013-11-09 15:00:00,59.3,42.2,29.10,WSW,242,13.0,32.0,53,0.00,,,0.00,WUHU216DAVISVP2,2013-11-09 20:00:00,
2013-11-09 15:01:00,59.3,42.2,29.10,West,262,19.0,32.0,53,0.00,,,0.00,WUHU216DAVISVP2,2013-11-09 20:01:00,
2013-11-09 15:02:00,59.4,42.3,29.10,West,281,11.0,32.0,53,0.00,,,0.00,WUHU216DAVISVP2,2013-11-09 20:02:00,
2013-11-09 15:04:00,59.4,42.3,29.10,North,359,14.0,32.0,53,0.00,,,0.00,WUHU216DAVISVP2,2013-11-09 20:04:00,
2013-11-09 15:05:00,59.5,41.9,29.10,WSW,253,10.0,32.0,52,0.00,,,0.00,WUHU216DAVISVP2,2013-11-09 20:05:00,
2013-11-09 15:06:00,59.5,42.3,29.10,West,263,9.0,32.0,53,0.00,,,0.00,WUHU216DAVISVP2,2013-11-09 20:06:00,
2013-11-09 15:08:00,59.6,41.9,29.10,WNW,283,13.0,33.0,52,0.00,,,0.00,WUHU216DAVISVP2,2013-11-09 20:08:00,
2013-11-09 15:09:00,59.5,41.9,29.10,West,270,18.0,33.0,52,0.00,,,0.00,WUHU216DAVISVP2,2013-11-09 20:09:00,
2013-11-09 15:10:00,59.5,41.9,29.10,WSW,250,12.0,33.0,52,0.00,,,0.00,WUHU216DAVISVP2,2013-11-09 20:10:00,
2013-11-09 15:11:00,59.5,41.9,29.10,WSW,253,11.0,33.0,52,0.00,,,0.00,WUHU216DAVISVP2,2013-11-09 20:11:00,
2013-11-09 15:13:00,59.5,41.9,29.10,West,270,19.0,33.0,52,0.00,,,0.00,WUHU216DAVISVP2,2013-11-09 20:13:00,
2013-11-09 15:15:00,59.6,42.0,29.10,West,266,20.0,33.0,52,0.00,,,0.00,WUHU216DAVISVP2,2013-11-09 20:15:00,
2013-11-09 15:16:00,59.6,42.0,29.10,West,267,19.0,33.0,52,0.00,,,0.00,WUHU216DAVISVP2,2013-11-09 20:16:00,
2013-11-09 15:17:00,59.6,42.0,29.10,SW,225,10.0,33.0,52,0.00,,,0.00,WUHU216DAVISVP2,2013-11-09 20:17:00,
2013-11-09 15:19:00,59.8,42.2,29.10,West,267,11.0,33.0,52,0.00,,,0.00,WUHU216DAVISVP2,2013-11-09 20:19:00,
2013-11-09 15:20:00,59.9,42.3,29.11,West,260,12.0,33.0,52,0.00,,,0.00,WUHU216DAVISVP2,2013-11-09 20:20:00,
2013-11-09 15:21:00,59.8,42.2,29.10,WNW,297,15.0,33.0,52,0.00,,,0.00,WUHU216DAVISVP2,2013-11-09 20:21:00,
2013-11-09 15:22:00,59.8,42.2,29.10,WSW,239,22.0,33.0,52,0.00,,,0.00,WUHU216DAVISVP2,2013-11-09 20:22:00,
2013-11-09 15:24:00,59.8,41.6,29.10,West,264,15.0,33.0,51,0.00,,,0.00,WUHU216DAVISVP2,2013-11-09 20:24:00,
2013-11-09 15:25:00,59.8,41.1,29.10,West,272,16.0,33.0,50,0.00,,,0.00,WUHU216DAVISVP2,2013-11-09 20:25:00,
2013-11-09 15:27:00,59.9,41.2,29.10,West,270,25.0,31.0,50,0.00,,,0.00,WUHU216DAVISVP2,2013-11-09 20:27:00,
2013-11-09 15:29:00,59.9,41.7,29.10,West,270,19.0,31.0,51,0.00,,,0.00,WUHU216DAVISVP2,2013-11-09 20:29:00,
2013-11-09 15:30:00,60.0,41.8,29.10,West,271,14.0,31.0,51,0.00,,,0.00,WUHU216DAVISVP2,2013-11-09 20:30:00,
2013-11-09 15:31:00,60.0,41.8,29.10,West,268,22.0,31.0,51,0.00,,,0.00,WUHU216DAVISVP2,2013-11-09 20:31:00,
2013-11-09 15:32:00,60.0,41.8,29.10,WSW,257,16.0,31.0,51,0.00,,,0.00,WUHU216DAVISVP2,2013-11-09 20:32:00,
2013-11-09 15:34:00,60.0,41.8,29.10,West,266,23.0,31.0,51,0.00,,,0.00,WUHU216DAVISVP2,2013-11-09 20:34:00,
2013-11-09 15:36:00,60.0,41.8,29.10,WSW,249,12.0,31.0,51,0.00,,,0.00,WUHU216DAVISVP2,2013-11-09 20:36:00,
2013-11-09 15:37:00,60.0,41.3,29.10,WSW,244,31.0,31.0,50,0.00,,,0.00,WUHU216DAVISVP2,2013-11-09 20:37:00,
2013-11-09 15:39:00,60.0,41.3,29.10,West,264,25.0,33.0,50,0.00,,,0.00,WUHU216DAVISVP2,2013-11-09 20:39:00,
2013-11-09 15:41:00,60.0,40.8,29.10,West,271,15.0,33.0,49,0.00,,,0.00,WUHU216DAVISVP2,2013-11-09 20:41:00,
2013-11-09 15:42:00,60.0,40.2,29.10,West,265,10.0,33.0,48,0.00,,,0.00,WUHU216DAVISVP2,2013-11-09 20:42:00,
2013-11-09 15:43:00,60.0,40.8,29.10,WNW,291,24.0,33.0,49,0.00,,,0.00,WUHU216DAVISVP2,2013-11-09 20:43:00,
2013-11-09 15:44:00,60.0,40.2,29.10,West,274,13.0,33.0,48,0.00,,,0.00,WUHU216DAVISVP2,2013-11-09 20:44:00,
2013-11-09 15:46:00,60.0,40.8,29.10,West,280,10.0,33.0,49,0.00,,,0.00,WUHU216DAVISVP2,2013-11-09 20:46:00,
2013-11-09 15:47:00,60.2,41.5,29.10,WNW,297,7.0,33.0,50,0.00,,,0.00,WUHU216DAVISVP2,2013-11-09 20:47:00,
2013-11-09 15:48:00,60.2,41.5,29.10,WNW,285,11.0,33.0,50,0.00,,,0.00,WUHU216DAVISVP2,2013-11-09 20:48:00,
2013-11-09 15:49:00,60.3,41.6,29.11,West,277,8.0,33.0,50,0.00,,,0.00,WUHU216DAVISVP2,2013-11-09 20:49:00,
2013-11-09 15:51:00,60.3,41.0,29.11,WNW,285,20.0,33.0,49,0.00,,,0.00,WUHU216DAVISVP2,2013-11-09 20:51:00,
2013-11-09 15:52:00,60.2,40.4,29.11,West,278,19.0,33.0,48,0.00,,,0.00,WUHU216DAVISVP2,2013-11-09 20:52:00,
2013-11-09 15:53:00,60.1,40.3,29.11,WNW,293,24.0,33.0,48,0.00,,,0.00,WUHU216DAVISVP2,2013-11-09 20:53:00,
2013-11-09 15:54:00,60.0,40.8,29.11,WNW,283,18.0,33.0,49,0.00,,,0.00,WUHU216DAVISVP2,2013-11-09 20:54:00,
2013-11-09 15:55:00,59.9,40.7,29.11,WNW,282,24.0,33.0,49,0.00,,,0.00,WUHU216DAVISVP2,2013-11-09 20:55:00,
2013-11-09 15:56:00,59.9,40.7,29.11,West,270,18.0,33.0,49,0.00,,,0.00,WUHU216DAVISVP2,2013-11-09 20:56:00,
2013-11-09 15:57:00,59.9,40.7,29.11,West,277,25.0,33.0,49,0.00,,,0.00,WUHU216DAVISVP2,2013-11-09 20:57:00,
2013-11-09 15:58:00,59.9,40.7,29.11,WNW,283,11.0,31.0,49,0.00,,,0.00,WUHU216DAVISVP2,2013-11-09 20:58:00,
2013-11-09 15:59:00,59.9,41.2,29.11,West,269,14.0,31.0,50,0.00,,,0.00,WUHU216DAVISVP2,2013-11-09 20:59:00,
2013-11-09 16:01:00,59.9,40.7,29.11,West,276,12.0,31.0,49,0.00,,,0.00,WUHU216DAVISVP2,2013-11-09 21:01:00,
2013-11-09 16:02:00,60.0,40.8,29.11,West,279,18.0,31.0,49,0.00,,,0.00,WUHU216DAVISVP2,2013-11-09 21:02:00,
2013-11-09 16:03:00,60.0,40.8,29.11,West,281,16.0,31.0,49,0.00,,,0.00,WUHU216DAVISVP2,2013-11-09 21:03:00,
2013-11-09 16:04:00,60.0,40.8,29.11,West,280,27.0,31.0,49,0.00,,,0.00,WUHU216DAVISVP2,2013-11-09 21:04:00,
2013-11-09 16:06:00,60.0,40.8,29.11,WNW,288,23.0,31.0,49,0.00,,,0.00,WUHU216DAVISVP2,2013-11-09 21:06:00,
2013-11-09 16:08:00,60.1,40.9,29.11,West,279,14.0,31.0,49,0.00,,,0.00,WUHU216DAVISVP2,2013-11-09 21:08:00,
2013-11-09 16:09:00,60.1,40.9,29.11,WSW,240,14.0,37.0,49,0.00,,,0.00,WUHU216DAVISVP2,2013-11-09 21:09:00,
2013-11-09 16:11:00,60.1,40.9,29.11,West,262,10.0,37.0,49,0.00,,,0.00,WUHU216DAVISVP2,2013-11-09 21:11:00,
2013-11-09 16:12:00,60.1,40.9,29.10,WNW,284,16.0,37.0,49,0.00,,,0.00,WUHU216DAVISVP2,2013-11-09 21:12:00,
2013-11-09 16:13:00,60.1,40.9,29.11,WSW,257,19.0,37.0,49,0.00,,,0.00,WUHU216DAVISVP2,2013-11-09 21:13:00,
2013-11-09 16:14:00,60.1,40.9,29.11,West,262,18.0,37.0,49,0.00,,,0.00,WUHU216DAVISVP2,2013-11-09 21:14:00,
2013-11-09 16:16:00,60.1,40.9,29.11,West,270,20.0,37.0,49,0.00,,,0.00,WUHU216DAVISVP2,2013-11-09 21:16:00,
2013-11-09 16:17:00,60.1,40.9,29.11,WNW,289,16.0,37.0,49,0.00,,,0.00,WUHU216DAVISVP2,2013-11-09 21:17:00,
2013-11-09 16:18:00,60.1,40.9,29.11,WNW,285,13.0,37.0,49,0.00,,,0.00,WUHU216DAVISVP2,2013-11-09 21:18:00,
2013-11-09 16:19:00,60.0,41.3,29.11,WNW,284,10.0,37.0,50,0.00,,,0.00,WUHU216DAVISVP2,2013-11-09 21:19:00,
2013-11-09 16:20:00,60.0,41.3,29.11,West,262,13.0,37.0,50,0.00,,,0.00,WUHU216DAVISVP2,2013-11-09 21:20:00,
2013-11-09 16:21:00,60.0,40.8,29.11,West,260,23.0,37.0,49,0.00,,,0.00,WUHU216DAVISVP2,2013-11-09 21:21:00,
2013-11-09 16:22:00,60.0,40.8,29.11,WNW,289,18.0,37.0,49,0.00,,,0.00,WUHU216DAVISVP2,2013-11-09 21:22:00,
2013-11-09 16:23:00,60.0,40.8,29.11,WNW,287,12.0,37.0,49,0.00,,,0.00,WUHU216DAVISVP2,2013-11-09 21:23:00,
2013-11-09 16:24:00,60.0,41.3,29.11,West,264,19.0,37.0,50,0.00,,,0.00,WUHU216DAVISVP2,2013-11-09 21:24:00,
2013-11-09 16:25:00,60.0,41.3,29.11,West,281,19.0,37.0,50,0.00,,,0.00,WUHU216DAVISVP2,2013-11-09 21:25:00,
2013-11-09 16:26:00,60.0,41.3,29.11,West,270,20.0,37.0,50,0.00,,,0.00,WUHU216DAVISVP2,2013-11-09 21:26:00,
2013-11-09 16:27:00,60.0,41.3,29.11,WNW,285,9.0,37.0,50,0.00,,,0.00,WUHU216DAVISVP2,2013-11-09 21:27:00,
2013-11-09 16:28:00,60.0,41.3,29.11,West,276,13.0,31.0,50,0.00,,,0.00,WUHU216DAVISVP2,2013-11-09 21:28:00,
2013-11-09 16:29:00,60.0,41.3,29.11,WNW,282,12.0,31.0,50,0.00,,,0.00,WUHU216DAVISVP2,2013-11-09 21:29:00,
2013-11-09 16:30:00,60.0,41.3,29.11,WSW,245,15.0,31.0,50,0.00,,,0.00,WUHU216DAVISVP2,2013-11-09 21:30:00,
2013-11-09 16:31:00,60.0,41.3,29.11,NW,310,14.0,31.0,50,0.00,,,0.00,WUHU216DAVISVP2,2013-11-09 21:31:00,
2013-11-09 16:33:00,60.0,41.3,29.11,West,279,13.0,31.0,50,0.00,,,0.00,WUHU216DAVISVP2,2013-11-09 21:33:00,
2013-11-09 16:34:00,60.0,41.3,29.11,West,266,11.0,31.0,50,0.00,,,0.00,WUHU216DAVISVP2,2013-11-09 21:34:00,
2013-11-09 16:35:00,60.0,41.3,29.11,WNW,291,10.0,29.0,50,0.00,,,0.00,WUHU216DAVISVP2,2013-11-09 21:35:00,
2013-11-09 16:36:00,60.0,41.3,29.11,West,262,10.0,29.0,50,0.00,,,0.00,WUHU216DAVISVP2,2013-11-09 21:36:00,
2013-11-09 16:38:00,60.0,41.8,29.12,WNW,285,19.0,28.0,51,0.00,,,0.00,WUHU216DAVISVP2,2013-11-09 21:38:00,
2013-11-09 16:39:00,59.9,41.7,29.11,West,281,22.0,28.0,51,0.00,,,0.00,WUHU216DAVISVP2,2013-11-09 21:39:00,
2013-11-09 16:40:00,59.9,41.7,29.11,West,276,12.0,28.0,51,0.00,,,0.00,WUHU216DAVISVP2,2013-11-09 21:40:00,
2013-11-09 16:41:00,59.9,41.7,29.11,West,280,11.0,28.0,51,0.00,,,0.00,WUHU216DAVISVP2,2013-11-09 21:41:00,
2013-11-09 16:42:00,59.9,41.7,29.11,West,276,16.0,28.0,51,0.00,,,0.00,WUHU216DAVISVP2,2013-11-09 21:42:00,
2013-11-09 16:43:00,59.8,41.7,29.11,WNW,285,11.0,27.0,51,0.00,,,0.00,WUHU216DAVISVP2,2013-11-09 21:43:00,
2013-11-09 16:45:00,59.8,41.7,29.11,West,268,26.0,26.0,51,0.00,,,0.00,WUHU216DAVISVP2,2013-11-09 21:45:00,
2013-11-09 16:46:00,59.8,41.7,29.11,WNW,300,13.0,26.0,51,0.00,,,0.00,WUHU216DAVISVP2,2013-11-09 21:46:00,
2013-11-09 16:47:00,59.8,41.7,29.11,West,276,14.0,26.0,51,0.00,,,0.00,WUHU216DAVISVP2,2013-11-09 21:47:00,
2013-11-09 16:48:00,59.7,41.6,29.11,West,265,18.0,26.0,51,0.00,,,0.00,WUHU216DAVISVP2,2013-11-09 21:48:00,
2013-11-09 16:50:00,59.6,41.5,29.11,West,277,14.0,26.0,51,0.00,,,0.00,WUHU216DAVISVP2,2013-11-09 21:50:00,
2013-11-09 16:51:00,59.6,41.5,29.11,West,278,15.0,26.0,51,0.00,,,0.00,WUHU216DAVISVP2,2013-11-09 21:51:00,
2013-11-09 16:52:00,59.6,41.5,29.11,West,270,27.0,28.0,51,0.00,,,0.00,WUHU216DAVISVP2,2013-11-09 21:52:00,
2013-11-09 16:53:00,59.6,41.5,29.11,West,275,23.0,29.0,51,0.00,,,0.00,WUHU216DAVISVP2,2013-11-09 21:53:00,
2013-11-09 16:54:00,59.6,41.5,29.11,West,275,12.0,29.0,51,0.00,,,0.00,WUHU216DAVISVP2,2013-11-09 21:54:00,
2013-11-09 16:55:00,59.5,41.9,29.11,WSW,253,13.0,29.0,52,0.00,,,0.00,WUHU216DAVISVP2,2013-11-09 21:55:00,
2013-11-09 16:56:00,59.5,41.4,29.11,West,274,12.0,29.0,51,0.00,,,0.00,WUHU216DAVISVP2,2013-11-09 21:56:00,
2013-11-09 16:57:00,59.5,41.9,29.11,West,265,21.0,29.0,52,0.00,,,0.00,WUHU216DAVISVP2,2013-11-09 21:57:00,
2013-11-09 16:59:00,59.5,41.9,29.11,West,262,9.0,29.0,52,0.00,,,0.00,WUHU216DAVISVP2,2013-11-09 21:59:00,
2013-11-09 17:00:00,59.4,41.8,29.11,WNW,283,26.0,29.0,52,0.00,,,0.00,WUHU216DAVISVP2,2013-11-09 22:00:00,
2013-11-09 17:01:00,59.4,41.8,29.11,WNW,282,13.0,29.0,52,0.00,,,0.00,WUHU216DAVISVP2,2013-11-09 22:01:00,
2013-11-09 17:02:00,59.3,41.7,29.12,West,275,22.0,29.0,52,0.00,,,0.00,WUHU216DAVISVP2,2013-11-09 22:02:00,
2013-11-09 17:03:00,59.4,41.8,29.12,West,265,27.0,29.0,52,0.00,,,0.00,WUHU216DAVISVP2,2013-11-09 22:03:00,
2013-11-09 17:04:00,59.3,41.7,29.12,West,281,19.0,29.0,52,0.00,,,0.00,WUHU216DAVISVP2,2013-11-09 22:04:00,
2013-11-09 17:05:00,59.2,41.6,29.11,West,267,15.0,29.0,52,0.00,,,0.00,WUHU216DAVISVP2,2013-11-09 22:05:00,
2013-11-09 17:06:00,59.2,41.6,29.11,West,266,11.0,29.0,52,0.00,,,0.00,WUHU216DAVISVP2,2013-11-09 22:06:00,
2013-11-09 17:07:00,59.1,42.0,29.12,West,271,10.0,29.0,53,0.00,,,0.00,WUHU216DAVISVP2,2013-11-09 22:07:00,
2013-11-09 17:08:00,59.1,42.0,29.12,WSW,237,16.0,29.0,53,0.00,,,0.00,WUHU216DAVISVP2,2013-11-09 22:08:00,
2013-11-09 17:09:00,59.0,41.9,29.11,WNW,284,13.0,29.0,53,0.00,,,0.00,WUHU216DAVISVP2,2013-11-09 22:09:00,
2013-11-09 17:11:00,59.0,41.9,29.12,West,260,21.0,29.0,53,0.00,,,0.00,WUHU216DAVISVP2,2013-11-09 22:11:00,
2013-11-09 17:12:00,59.0,41.9,29.12,WSW,241,15.0,29.0,53,0.00,,,0.00,WUHU216DAVISVP2,2013-11-09 22:12:00,
2013-11-09 17:13:00,58.9,41.8,29.12,West,264,19.0,27.0,53,0.00,,,0.00,WUHU216DAVISVP2,2013-11-09 22:13:00,
2013-11-09 17:14:00,58.9,41.8,29.12,West,265,10.0,27.0,53,0.00,,,0.00,WUHU216DAVISVP2,2013-11-09 22:14:00,
2013-11-09 17:15:00,58.8,41.8,29.12,West,276,14.0,27.0,53,0.00,,,0.00,WUHU216DAVISVP2,2013-11-09 22:15:00,
2013-11-09 17:16:00,58.8,41.8,29.12,West,268,12.0,27.0,53,0.00,,,0.00,WUHU216DAVISVP2,2013-11-09 22:16:00,
2013-11-09 17:17:00,58.8,41.8,29.12,West,272,9.0,27.0,53,0.00,,,0.00,WUHU216DAVISVP2,2013-11-09 22:17:00,
2013-11-09 17:18:00,58.8,42.3,29.12,West,267,12.0,27.0,54,0.00,,,0.00,WUHU216DAVISVP2,2013-11-09 22:18:00,
2013-11-09 17:19:00,58.7,42.2,29.12,West,270,10.0,27.0,54,0.00,,,0.00,WUHU216DAVISVP2,2013-11-09 22:19:00,
2013-11-09 17:20:00,58.7,42.2,29.12,West,265,11.0,27.0,54,0.00,,,0.00,WUHU216DAVISVP2,2013-11-09 22:20:00,
2013-11-09 17:21:00,58.7,42.2,29.12,West,259,14.0,27.0,54,0.00,,,0.00,WUHU216DAVISVP2,2013-11-09 22:21:00,
2013-11-09 17:22:00,58.6,42.1,29.12,WSW,239,10.0,27.0,54,0.00,,,0.00,WUHU216DAVISVP2,2013-11-09 22:22:00,
2013-11-09 17:24:00,58.6,42.1,29.12,WSW,254,14.0,27.0,54,0.00,,,0.00,WUHU216DAVISVP2,2013-11-09 22:24:00,
2013-11-09 17:26:00,58.6,42.1,29.12,West,272,11.0,27.0,54,0.00,,,0.00,WUHU216DAVISVP2,2013-11-09 22:26:00,
2013-11-09 17:27:00,58.6,42.1,29.12,WNW,285,12.0,27.0,54,0.00,,,0.00,WUHU216DAVISVP2,2013-11-09 22:27:00,
2013-11-09 17:28:00,58.6,42.1,29.12,West,265,8.0,27.0,54,0.00,,,0.00,WUHU216DAVISVP2,2013-11-09 22:28:00,
2013-11-09 17:29:00,58.5,42.0,29.12,WNW,282,16.0,27.0,54,0.00,,,0.00,WUHU216DAVISVP2,2013-11-09 22:29:00,
2013-11-09 17:31:00,58.4,42.4,29.12,West,269,12.0,21.0,55,0.00,,,0.00,WUHU216DAVISVP2,2013-11-09 22:31:00,
2013-11-09 17:32:00,58.4,42.4,29.12,West,266,12.0,21.0,55,0.00,,,0.00,WUHU216DAVISVP2,2013-11-09 22:32:00,
2013-11-09 17:33:00,58.5,42.5,29.12,West,263,18.0,21.0,55,0.00,,,0.00,WUHU216DAVISVP2,2013-11-09 22:33:00,
2013-11-09 17:34:00,58.5,42.5,29.12,West,273,11.0,21.0,55,0.00,,,0.00,WUHU216DAVISVP2,2013-11-09 22:34:00,
2013-11-09 17:36:00,58.4,42.4,29.12,WSW,249,8.0,20.0,55,0.00,,,0.00,WUHU216DAVISVP2,2013-11-09 22:36:00,
2013-11-09 17:37:00,58.3,42.3,29.12,NW,310,10.0,20.0,55,0.00,,,0.00,WUHU216DAVISVP2,2013-11-09 22:37:00,
2013-11-09 17:38:00,58.3,42.3,29.12,West,260,10.0,20.0,55,0.00,,,0.00,WUHU216DAVISVP2,2013-11-09 22:38:00,
2013-11-09 17:39:00,58.2,42.2,29.12,West,274,12.0,20.0,55,0.00,,,0.00,WUHU216DAVISVP2,2013-11-09 22:39:00,
2013-11-09 17:40:00,58.2,42.2,29.12,West,277,18.0,20.0,55,0.00,,,0.00,WUHU216DAVISVP2,2013-11-09 22:40:00,
2013-11-09 17:41:00,58.2,42.2,29.12,West,281,18.0,20.0,55,0.00,,,0.00,WUHU216DAVISVP2,2013-11-09 22:41:00,
2013-11-09 17:42:00,58.2,42.2,29.12,WSW,256,15.0,20.0,55,0.00,,,0.00,WUHU216DAVISVP2,2013-11-09 22:42:00,
2013-11-09 17:43:00,58.2,42.2,29.12,WNW,282,13.0,20.0,55,0.00,,,0.00,WUHU216DAVISVP2,2013-11-09 22:43:00,
2013-11-09 17:44:00,58.1,42.1,29.13,West,264,9.0,20.0,55,0.00,,,0.00,WUHU216DAVISVP2,2013-11-09 22:44:00,
2013-11-09 17:45:00,58.2,42.2,29.13,West,266,10.0,20.0,55,0.00,,,0.00,WUHU216DAVISVP2,2013-11-09 22:45:00,
2013-11-09 17:47:00,58.1,42.6,29.13,West,259,5.0,20.0,56,0.00,,,0.00,WUHU216DAVISVP2,2013-11-09 22:47:00,
2013-11-09 17:48:00,58.0,42.5,29.13,West,276,10.0,20.0,56,0.00,,,0.00,WUHU216DAVISVP2,2013-11-09 22:48:00,
2013-11-09 17:49:00,57.9,42.4,29.13,West,263,9.0,19.0,56,0.00,,,0.00,WUHU216DAVISVP2,2013-11-09 22:49:00,
2013-11-09 17:50:00,57.8,42.3,29.13,West,270,8.0,19.0,56,0.00,,,0.00,WUHU216DAVISVP2,2013-11-09 22:50:00,
2013-11-09 17:52:00,57.7,42.2,29.13,West,267,9.0,19.0,56,0.00,,,0.00,WUHU216DAVISVP2,2013-11-09 22:52:00,
2013-11-09 17:53:00,57.7,42.2,29.13,West,266,12.0,19.0,56,0.00,,,0.00,WUHU216DAVISVP2,2013-11-09 22:53:00,
2013-11-09 17:54:00,57.7,42.7,29.13,WNW,288,9.0,20.0,57,0.00,,,0.00,WUHU216DAVISVP2,2013-11-09 22:54:00,
2013-11-09 17:55:00,57.7,42.7,29.13,West,270,9.0,20.0,57,0.00,,,0.00,WUHU216DAVISVP2,2013-11-09 22:55:00,
2013-11-09 17:58:00,57.6,42.6,29.13,West,265,7.0,20.0,57,0.00,,,0.00,WUHU216DAVISVP2,2013-11-09 22:58:00,
2013-11-09 17:59:00,57.5,42.5,29.13,West,270,7.0,20.0,57,0.00,,,0.00,WUHU216DAVISVP2,2013-11-09 22:59:00,
2013-11-09 18:00:00,57.5,42.5,29.13,West,268,13.0,20.0,57,0.00,,,0.00,WUHU216DAVISVP2,2013-11-09 23:00:00,
2013-11-09 18:03:00,57.5,42.0,29.13,West,276,13.0,20.0,56,0.00,,,0.00,WUHU216DAVISVP2,2013-11-09 23:03:00,
2013-11-09 18:05:00,57.5,42.0,29.13,West,265,14.0,20.0,56,0.00,,,0.00,WUHU216DAVISVP2,2013-11-09 23:05:00,
2013-11-09 18:07:00,57.5,41.5,29.14,West,274,15.0,20.0,55,0.00,,,0.00,WUHU216DAVISVP2,2013-11-09 23:07:00,
2013-11-09 18:08:00,57.5,41.5,29.14,WNW,301,11.0,20.0,55,0.00,,,0.00,WUHU216DAVISVP2,2013-11-09 23:08:00,
2013-11-09 18:09:00,57.5,41.5,29.14,West,262,11.0,20.0,55,0.00,,,0.00,WUHU216DAVISVP2,2013-11-09 23:09:00,
2013-11-09 18:10:00,57.5,41.5,29.14,West,279,11.0,20.0,55,0.00,,,0.00,WUHU216DAVISVP2,2013-11-09 23:10:00,
2013-11-09 18:12:00,57.5,41.0,29.14,West,281,12.0,20.0,54,0.00,,,0.00,WUHU216DAVISVP2,2013-11-09 23:12:00,
2013-11-09 18:13:00,57.4,40.9,29.14,NW,312,9.0,19.0,54,0.00,,,0.00,WUHU216DAVISVP2,2013-11-09 23:13:00,
2013-11-09 18:14:00,57.3,40.9,29.14,WNW,297,13.0,19.0,54,0.00,,,0.00,WUHU216DAVISVP2,2013-11-09 23:14:00,
2013-11-09 18:15:00,57.3,40.9,29.14,WNW,297,11.0,19.0,54,0.00,,,0.00,WUHU216DAVISVP2,2013-11-09 23:15:00,
2013-11-09 18:18:00,57.1,41.2,29.14,WNW,290,8.0,19.0,55,0.00,,,0.00,WUHU216DAVISVP2,2013-11-09 23:18:00,
2013-11-09 18:19:00,57.0,41.1,29.14,WNW,295,12.0,19.0,55,0.00,,,0.00,WUHU216DAVISVP2,2013-11-09 23:19:00,
2013-11-09 18:20:00,56.9,40.5,29.15,NW,314,11.0,20.0,54,0.00,,,0.00,WUHU216DAVISVP2,2013-11-09 23:20:00,
2013-11-09 18:23:00,56.8,40.4,29.15,WNW,293,18.0,20.0,54,0.00,,,0.00,WUHU216DAVISVP2,2013-11-09 23:23:00,
2013-11-09 18:24:00,56.8,40.4,29.15,WNW,287,9.0,20.0,54,0.00,,,0.00,WUHU216DAVISVP2,2013-11-09 23:24:00,
2013-11-09 18:25:00,56.8,40.4,29.15,WNW,291,14.0,20.0,54,0.00,,,0.00,WUHU216DAVISVP2,2013-11-09 23:25:00,
2013-11-09 18:28:00,56.7,40.3,29.15,NW,311,21.0,21.0,54,0.00,,,0.00,WUHU216DAVISVP2,2013-11-09 23:28:00,
2013-11-09 18:29:00,56.7,40.3,29.15,NW,308,10.0,21.0,54,0.00,,,0.00,WUHU216DAVISVP2,2013-11-09 23:29:00,
2013-11-09 18:30:00,56.6,40.2,29.15,WNW,299,13.0,21.0,54,0.00,,,0.00,WUHU216DAVISVP2,2013-11-09 23:30:00,
2013-11-09 18:31:00,56.6,40.2,29.15,WNW,298,12.0,21.0,54,0.00,,,0.00,WUHU216DAVISVP2,2013-11-09 23:31:00,
2013-11-09 18:33:00,56.4,40.5,29.15,WNW,283,13.0,21.0,55,0.00,,,0.00,WUHU216DAVISVP2,2013-11-09 23:33:00,
2013-11-09 18:34:00,56.4,40.5,29.15,WNW,282,10.0,21.0,55,0.00,,,0.00,WUHU216DAVISVP2,2013-11-09 23:34:00,
2013-11-09 18:35:00,56.4,40.5,29.15,WNW,285,13.0,21.0,55,0.00,,,0.00,WUHU216DAVISVP2,2013-11-09 23:35:00,
2013-11-09 18:36:00,56.4,40.5,29.15,WNW,303,15.0,21.0,55,0.00,,,0.00,WUHU216DAVISVP2,2013-11-09 23:36:00,
2013-11-09 18:39:00,56.3,40.4,29.15,WNW,289,9.0,23.0,55,0.00,,,0.00,WUHU216DAVISVP2,2013-11-09 23:39:00,
2013-11-09 18:40:00,56.3,40.4,29.16,WNW,290,15.0,23.0,55,0.00,,,0.00,WUHU216DAVISVP2,2013-11-09 23:40:00,
2013-11-09 18:41:00,56.3,40.4,29.16,WNW,297,14.0,23.0,55,0.00,,,0.00,WUHU216DAVISVP2,2013-11-09 23:41:00,
2013-11-09 18:44:00,56.2,40.3,29.16,West,279,14.0,23.0,55,0.00,,,0.00,WUHU216DAVISVP2,2013-11-09 23:44:00,
2013-11-09 18:45:00,56.1,40.2,29.16,WNW,297,13.0,23.0,55,0.00,,,0.00,WUHU216DAVISVP2,2013-11-09 23:45:00,
2013-11-09 18:46:00,56.1,40.2,29.16,WNW,283,10.0,23.0,55,0.00,,,0.00,WUHU216DAVISVP2,2013-11-09 23:46:00,
2013-11-09 18:49:00,56.0,40.1,29.16,WNW,285,18.0,23.0,55,0.00,,,0.00,WUHU216DAVISVP2,2013-11-09 23:49:00,
2013-11-09 18:51:00,56.0,40.1,29.16,WNW,287,12.0,23.0,55,0.00,,,0.00,WUHU216DAVISVP2,2013-11-09 23:51:00,
2013-11-09 18:52:00,56.0,40.1,29.16,WNW,282,13.0,23.0,55,0.00,,,0.00,WUHU216DAVISVP2,2013-11-09 23:52:00,
2013-11-09 18:54:00,55.9,40.0,29.16,WNW,291,10.0,23.0,55,0.00,,,0.00,WUHU216DAVISVP2,2013-11-09 23:54:00,
2013-11-09 18:55:00,55.9,40.0,29.16,WNW,292,6.0,23.0,55,0.00,,,0.00,WUHU216DAVISVP2,2013-11-09 23:55:00,
2013-11-09 18:56:00,55.8,40.4,29.16,WNW,297,12.0,23.0,56,0.00,,,0.00,WUHU216DAVISVP2,2013-11-09 23:56:00,
2013-11-09 18:57:00,55.8,40.4,29.16,West,278,12.0,21.0,56,0.00,,,0.00,WUHU216DAVISVP2,2013-11-09 23:57:00,
2013-11-09 18:59:00,55.8,40.4,29.16,WNW,282,14.0,21.0,56,0.00,,,0.00,WUHU216DAVISVP2,2013-11-09 23:59:00,
2013-11-09 19:00:00,55.8,40.4,29.16,West,267,13.0,21.0,56,0.00,,,0.00,WUHU216DAVISVP2,2013-11-10 00:00:00,
2013-11-09 19:01:00,55.7,40.3,29.16,WNW,289,14.0,21.0,56,0.00,,,0.00,WUHU216DAVISVP2,2013-11-10 00:01:00,
2013-11-09 19:02:00,55.7,40.3,29.16,West,271,11.0,21.0,56,0.00,,,0.00,WUHU216DAVISVP2,2013-11-10 00:02:00,
2013-11-09 19:04:00,55.6,40.2,29.16,WNW,283,14.0,21.0,56,0.00,,,0.00,WUHU216DAVISVP2,2013-11-10 00:04:00,
2013-11-09 19:05:00,55.7,40.3,29.16,West,278,15.0,21.0,56,0.00,,,0.00,WUHU216DAVISVP2,2013-11-10 00:05:00,
2013-11-09 19:06:00,55.6,40.2,29.16,WNW,294,11.0,21.0,56,0.00,,,0.00,WUHU216DAVISVP2,2013-11-10 00:06:00,
2013-11-09 19:07:00,55.6,40.2,29.16,WNW,289,13.0,21.0,56,0.00,,,0.00,WUHU216DAVISVP2,2013-11-10 00:07:00,
2013-11-09 19:10:00,55.5,40.1,29.16,WNW,291,14.0,24.0,56,0.00,,,0.00,WUHU216DAVISVP2,2013-11-10 00:10:00,
2013-11-09 19:12:00,55.5,40.1,29.17,NW,307,16.0,24.0,56,0.00,,,0.00,WUHU216DAVISVP2,2013-11-10 00:12:00,
2013-11-09 19:15:00,55.3,40.4,29.17,WNW,299,13.0,24.0,57,0.00,,,0.00,WUHU216DAVISVP2,2013-11-10 00:15:00,
2013-11-09 19:16:00,55.2,40.3,29.17,West,276,14.0,24.0,57,0.00,,,0.00,WUHU216DAVISVP2,2013-11-10 00:16:00,
2013-11-09 19:17:00,55.1,40.2,29.17,West,272,8.0,24.0,57,0.00,,,0.00,WUHU216DAVISVP2,2013-11-10 00:17:00,
2013-11-09 19:18:00,55.1,40.2,29.17,WNW,292,11.0,24.0,57,0.00,,,0.00,WUHU216DAVISVP2,2013-11-10 00:18:00,
2013-11-09 19:20:00,55.0,40.1,29.17,WNW,283,14.0,24.0,57,0.00,,,0.00,WUHU216DAVISVP2,2013-11-10 00:20:00,
2013-11-09 19:21:00,54.9,40.0,29.17,West,270,10.0,24.0,57,0.00,,,0.00,WUHU216DAVISVP2,2013-11-10 00:21:00,
2013-11-09 19:22:00,54.8,40.4,29.17,West,272,8.0,24.0,58,0.00,,,0.00,WUHU216DAVISVP2,2013-11-10 00:22:00,
2013-11-09 19:23:00,54.8,40.4,29.17,NW,305,8.0,24.0,58,0.00,,,0.00,WUHU216DAVISVP2,2013-11-10 00:23:00,
2013-11-09 19:25:00,54.7,40.3,29.17,West,276,14.0,24.0,58,0.00,,,0.00,WUHU216DAVISVP2,2013-11-10 00:25:00,
2013-11-09 19:26:00,54.7,40.3,29.17,West,280,12.0,24.0,58,0.00,,,0.00,WUHU216DAVISVP2,2013-11-10 00:26:00,
2013-11-09 19:28:00,54.6,40.2,29.17,NW,308,8.0,24.0,58,0.00,,,0.00,WUHU216DAVISVP2,2013-11-10 00:28:00,
2013-11-09 19:29:00,54.6,40.2,29.17,West,273,12.0,19.0,58,0.00,,,0.00,WUHU216DAVISVP2,2013-11-10 00:29:00,
2013-11-09 19:30:00,54.5,40.1,29.17,WNW,289,9.0,19.0,58,0.00,,,0.00,WUHU216DAVISVP2,2013-11-10 00:30:00,
2013-11-09 19:31:00,54.5,40.1,29.17,WNW,284,8.0,19.0,58,0.00,,,0.00,WUHU216DAVISVP2,2013-11-10 00:31:00,
2013-11-09 19:33:00,54.4,40.0,29.17,West,276,6.0,19.0,58,0.00,,,0.00,WUHU216DAVISVP2,2013-11-10 00:33:00,
2013-11-09 19:34:00,54.4,40.5,29.17,West,280,8.0,19.0,59,0.00,,,0.00,WUHU216DAVISVP2,2013-11-10 00:34:00,
2013-11-09 19:35:00,54.3,40.4,29.17,WNW,293,9.0,16.0,59,0.00,,,0.00,WUHU216DAVISVP2,2013-11-10 00:35:00,
2013-11-09 19:36:00,54.3,40.4,29.17,West,280,9.0,16.0,59,0.00,,,0.00,WUHU216DAVISVP2,2013-11-10 00:36:00,
2013-11-09 19:38:00,54.3,40.4,29.17,West,276,13.0,16.0,59,0.00,,,0.00,WUHU216DAVISVP2,2013-11-10 00:38:00,
2013-11-09 19:39:00,54.3,40.4,29.17,WNW,287,8.0,16.0,59,0.00,,,0.00,WUHU216DAVISVP2,2013-11-10 00:39:00,
2013-11-09 19:41:00,54.2,40.3,29.17,WNW,284,13.0,16.0,59,0.00,,,0.00,WUHU216DAVISVP2,2013-11-10 00:41:00,
2013-11-09 19:43:00,54.2,40.3,29.17,WNW,284,9.0,16.0,59,0.00,,,0.00,WUHU216DAVISVP2,2013-11-10 00:43:00,
2013-11-09 19:44:00,54.2,40.3,29.17,West,276,11.0,16.0,59,0.00,,,0.00,WUHU216DAVISVP2,2013-11-10 00:44:00,
2013-11-09 19:46:00,54.1,40.2,29.17,West,281,10.0,16.0,59,0.00,,,0.00,WUHU216DAVISVP2,2013-11-10 00:46:00,
2013-11-09 19:47:00,54.1,40.2,29.17,WNW,284,12.0,19.0,59,0.00,,,0.00,WUHU216DAVISVP2,2013-11-10 00:47:00,
2013-11-09 19:48:00,54.1,40.2,29.17,West,278,10.0,19.0,59,0.00,,,0.00,WUHU216DAVISVP2,2013-11-10 00:48:00,
2013-11-09 19:49:00,54.1,40.2,29.17,West,272,14.0,19.0,59,0.00,,,0.00,WUHU216DAVISVP2,2013-11-10 00:49:00,
2013-11-09 19:50:00,54.0,40.1,29.17,WNW,296,8.0,19.0,59,0.00,,,0.00,WUHU216DAVISVP2,2013-11-10 00:50:00,
2013-11-09 19:51:00,54.0,40.1,29.17,WNW,289,10.0,19.0,59,0.00,,,0.00,WUHU216DAVISVP2,2013-11-10 00:51:00,
2013-11-09 19:52:00,54.0,40.1,29.17,WNW,290,12.0,19.0,59,0.00,,,0.00,WUHU216DAVISVP2,2013-11-10 00:52:00,
2013-11-09 19:54:00,53.9,40.4,29.17,WNW,287,9.0,19.0,60,0.00,,,0.00,WUHU216DAVISVP2,2013-11-10 00:54:00,
2013-11-09 19:55:00,53.9,40.4,29.17,WNW,283,9.0,19.0,60,0.00,,,0.00,WUHU216DAVISVP2,2013-11-10 00:55:00,
2013-11-09 19:56:00,53.8,40.3,29.17,WNW,288,10.0,19.0,60,0.00,,,0.00,WUHU216DAVISVP2,2013-11-10 00:56:00,
2013-11-09 19:57:00,53.8,40.3,29.17,WNW,283,12.0,19.0,60,0.00,,,0.00,WUHU216DAVISVP2,2013-11-10 00:57:00,
2013-11-09 19:59:00,53.7,40.2,29.17,West,280,8.0,19.0,60,0.00,,,0.00,WUHU216DAVISVP2,2013-11-10 00:59:00,
2013-11-09 20:00:00,53.7,40.2,29.17,West,273,11.0,19.0,60,0.00,,,0.00,WUHU216DAVISVP2,2013-11-10 01:00:00,
2013-11-09 20:01:00,53.7,40.2,29.18,WNW,285,8.0,19.0,60,0.00,,,0.00,WUHU216DAVISVP2,2013-11-10 01:01:00,
2013-11-09 20:02:00,53.6,40.2,29.18,West,272,9.0,19.0,60,0.00,,,0.00,WUHU216DAVISVP2,2013-11-10 01:02:00,
2013-11-09 20:05:00,53.6,40.6,29.17,West,272,7.0,19.0,61,0.00,,,0.00,WUHU216DAVISVP2,2013-11-10 01:05:00,
2013-11-09 20:06:00,53.7,40.2,29.17,West,276,10.0,23.0,60,0.00,,,0.00,WUHU216DAVISVP2,2013-11-10 01:06:00,
2013-11-09 20:07:00,53.7,40.2,29.17,West,271,8.0,23.0,60,0.00,,,0.00,WUHU216DAVISVP2,2013-11-10 01:07:00,
2013-11-09 20:08:00,53.7,40.2,29.17,West,276,13.0,23.0,60,0.00,,,0.00,WUHU216DAVISVP2,2013-11-10 01:08:00,
2013-11-09 20:10:00,53.6,40.2,29.17,WNW,290,13.0,23.0,60,0.00,,,0.00,WUHU216DAVISVP2,2013-11-10 01:10:00,
2013-11-09 20:11:00,53.6,40.2,29.17,West,271,12.0,23.0,60,0.00,,,0.00,WUHU216DAVISVP2,2013-11-10 01:11:00,
2013-11-09 20:12:00,53.6,40.2,29.17,WNW,283,11.0,23.0,60,0.00,,,0.00,WUHU216DAVISVP2,2013-11-10 01:12:00,
2013-11-09 20:13:00,53.6,40.2,29.17,WNW,283,9.0,23.0,60,0.00,,,0.00,WUHU216DAVISVP2,2013-11-10 01:13:00,
2013-11-09 20:15:00,53.5,40.5,29.17,WNW,287,12.0,23.0,61,0.00,,,0.00,WUHU216DAVISVP2,2013-11-10 01:15:00,
2013-11-09 20:16:00,53.5,40.1,29.17,West,275,11.0,23.0,60,0.00,,,0.00,WUHU216DAVISVP2,2013-11-10 01:16:00,
2013-11-09 20:17:00,53.5,40.1,29.17,WNW,297,8.0,23.0,60,0.00,,,0.00,WUHU216DAVISVP2,2013-11-10 01:17:00,
2013-11-09 20:18:00,53.4,40.4,29.17,WSW,255,10.0,23.0,61,0.00,,,0.00,WUHU216DAVISVP2,2013-11-10 01:18:00,
2013-11-09 20:20:00,53.3,40.3,29.17,WNW,283,12.0,23.0,61,0.00,,,0.00,WUHU216DAVISVP2,2013-11-10 01:20:00,
2013-11-09 20:21:00,53.3,40.3,29.18,West,264,15.0,23.0,61,0.00,,,0.00,WUHU216DAVISVP2,2013-11-10 01:21:00,
2013-11-09 20:22:00,53.3,40.3,29.18,West,270,5.0,23.0,61,0.00,,,0.00,WUHU216DAVISVP2,2013-11-10 01:22:00,
2013-11-09 20:23:00,53.2,40.2,29.18,WNW,287,9.0,23.0,61,0.00,,,0.00,WUHU216DAVISVP2,2013-11-10 01:23:00,
2013-11-09 20:26:00,53.2,40.2,29.18,WNW,296,8.0,19.0,61,0.00,,,0.00,WUHU216DAVISVP2,2013-11-10 01:26:00,
2013-11-09 20:27:00,53.3,40.3,29.18,WNW,297,12.0,19.0,61,0.00,,,0.00,WUHU216DAVISVP2,2013-11-10 01:27:00,
2013-11-09 20:28:00,53.3,40.3,29.18,WNW,297,12.0,19.0,61,0.00,,,0.00,WUHU216DAVISVP2,2013-11-10 01:28:00,
2013-11-09 20:31:00,53.4,40.4,29.18,West,281,9.0,19.0,61,0.00,,,0.00,WUHU216DAVISVP2,2013-11-10 01:31:00,
2013-11-09 20:32:00,53.3,40.3,29.18,West,269,13.0,19.0,61,0.00,,,0.00,WUHU216DAVISVP2,2013-11-10 01:32:00,
2013-11-09 20:33:00,53.3,40.3,29.18,WNW,299,10.0,19.0,61,0.00,,,0.00,WUHU216DAVISVP2,2013-11-10 01:33:00,
2013-11-09 20:36:00,53.2,40.2,29.18,WNW,295,12.0,19.0,61,0.00,,,0.00,WUHU216DAVISVP2,2013-11-10 01:36:00,
2013-11-09 20:37:00,53.2,40.2,29.18,West,275,14.0,19.0,61,0.00,,,0.00,WUHU216DAVISVP2,2013-11-10 01:37:00,
2013-11-09 20:39:00,53.2,40.2,29.18,WNW,287,9.0,19.0,61,0.00,,,0.00,WUHU216DAVISVP2,2013-11-10 01:39:00,
2013-11-09 20:41:00,53.1,40.1,29.18,West,267,9.0,19.0,61,0.00,,,0.00,WUHU216DAVISVP2,2013-11-10 01:41:00,
2013-11-09 20:42:00,53.1,40.1,29.18,WNW,293,12.0,19.0,61,0.00,,,0.00,WUHU216DAVISVP2,2013-11-10 01:42:00,
2013-11-09 20:43:00,53.1,40.1,29.18,WNW,288,11.0,19.0,61,0.00,,,0.00,WUHU216DAVISVP2,2013-11-10 01:43:00,
2013-11-09 20:44:00,53.1,40.1,29.18,West,271,10.0,19.0,61,0.00,,,0.00,WUHU216DAVISVP2,2013-11-10 01:44:00,
2013-11-09 20:47:00,53.1,40.1,29.18,WNW,287,9.0,19.0,61,0.00,,,0.00,WUHU216DAVISVP2,2013-11-10 01:47:00,
2013-11-09 20:48:00,53.1,40.1,29.18,WNW,299,12.0,19.0,61,0.00,,,0.00,WUHU216DAVISVP2,2013-11-10 01:48:00,
2013-11-09 20:49:00,53.1,40.1,29.18,West,279,11.0,19.0,61,0.00,,,0.00,WUHU216DAVISVP2,2013-11-10 01:49:00,
2013-11-09 20:50:00,53.2,40.2,29.18,WNW,300,7.0,19.0,61,0.00,,,0.00,WUHU216DAVISVP2,2013-11-10 01:50:00,
2013-11-09 20:52:00,53.1,40.1,29.18,WNW,290,11.0,19.0,61,0.00,,,0.00,WUHU216DAVISVP2,2013-11-10 01:52:00,
2013-11-09 20:53:00,53.1,40.1,29.18,WNW,293,15.0,19.0,61,0.00,,,0.00,WUHU216DAVISVP2,2013-11-10 01:53:00,
2013-11-09 20:54:00,53.1,40.5,29.18,WNW,294,13.0,19.0,62,0.00,,,0.00,WUHU216DAVISVP2,2013-11-10 01:54:00,
2013-11-09 20:55:00,53.0,40.4,29.18,West,266,10.0,19.0,62,0.00,,,0.00,WUHU216DAVISVP2,2013-11-10 01:55:00,
2013-11-09 20:57:00,53.0,40.4,29.18,WNW,303,8.0,19.0,62,0.00,,,0.00,WUHU216DAVISVP2,2013-11-10 01:57:00,
2013-11-09 20:58:00,52.9,40.3,29.18,WNW,293,16.0,19.0,62,0.00,,,0.00,WUHU216DAVISVP2,2013-11-10 01:58:00,
2013-11-09 20:59:00,52.9,40.3,29.18,West,279,8.0,19.0,62,0.00,,,0.00,WUHU216DAVISVP2,2013-11-10 01:59:00,
2013-11-09 21:00:00,52.9,40.3,29.18,WNW,295,15.0,19.0,62,0.00,,,0.00,WUHU216DAVISVP2,2013-11-10 02:00:00,
2013-11-09 21:02:00,52.8,40.2,29.19,West,281,13.0,19.0,62,0.00,,,0.00,WUHU216DAVISVP2,2013-11-10 02:02:00,
2013-11-09 21:03:00,52.8,40.2,29.19,WNW,295,6.0,19.0,62,0.00,,,0.00,WUHU216DAVISVP2,2013-11-10 02:03:00,
2013-11-09 21:04:00,52.7,40.6,29.19,WNW,295,12.0,19.0,63,0.00,,,0.00,WUHU216DAVISVP2,2013-11-10 02:04:00,
2013-11-09 21:05:00,52.6,40.5,29.19,WNW,299,7.0,19.0,63,0.00,,,0.00,WUHU216DAVISVP2,2013-11-10 02:05:00,
2013-11-09 21:08:00,52.4,40.3,29.19,WNW,291,12.0,19.0,63,0.00,,,0.00,WUHU216DAVISVP2,2013-11-10 02:08:00,
2013-11-09 21:10:00,52.3,40.2,29.19,WNW,294,13.0,20.0,63,0.00,,,0.00,WUHU216DAVISVP2,2013-11-10 02:10:00,
2013-11-09 21:13:00,52.0,40.3,29.19,WNW,298,13.0,20.0,64,0.00,,,0.00,WUHU216DAVISVP2,2013-11-10 02:13:00,
2013-11-09 21:14:00,51.9,40.2,29.19,WNW,288,9.0,20.0,64,0.00,,,0.00,WUHU216DAVISVP2,2013-11-10 02:14:00,
2013-11-09 21:15:00,51.9,40.2,29.19,WNW,293,13.0,20.0,64,0.00,,,0.00,WUHU216DAVISVP2,2013-11-10 02:15:00,
2013-11-09 21:18:00,51.7,40.4,29.19,WNW,288,8.0,20.0,65,0.00,,,0.00,WUHU216DAVISVP2,2013-11-10 02:18:00,
2013-11-09 21:19:00,51.6,40.3,29.19,WNW,294,7.0,20.0,65,0.00,,,0.00,WUHU216DAVISVP2,2013-11-10 02:19:00,
2013-11-09 21:20:00,51.6,40.3,29.19,WNW,289,10.0,20.0,65,0.00,,,0.00,WUHU216DAVISVP2,2013-11-10 02:20:00,
2013-11-09 21:21:00,51.5,40.2,29.19,WNW,295,10.0,20.0,65,0.00,,,0.00,WUHU216DAVISVP2,2013-11-10 02:21:00,
2013-11-09 21:23:00,51.3,40.4,29.19,WNW,300,8.0,20.0,66,0.00,,,0.00,WUHU216DAVISVP2,2013-11-10 02:23:00,
2013-11-09 21:24:00,51.3,40.4,29.19,WNW,295,13.0,20.0,66,0.00,,,0.00,WUHU216DAVISVP2,2013-11-10 02:24:00,
2013-11-09 21:25:00,51.3,40.4,29.19,NW,305,12.0,20.0,66,0.00,,,0.00,WUHU216DAVISVP2,2013-11-10 02:25:00,
2013-11-09 21:26:00,51.2,40.3,29.19,WNW,291,10.0,20.0,66,0.00,,,0.00,WUHU216DAVISVP2,2013-11-10 02:26:00,
2013-11-09 21:29:00,51.2,40.3,29.19,WNW,301,12.0,20.0,66,0.00,,,0.00,WUHU216DAVISVP2,2013-11-10 02:29:00,
2013-11-09 21:30:00,51.1,40.2,29.20,WNW,297,10.0,20.0,66,0.00,,,0.00,WUHU216DAVISVP2,2013-11-10 02:30:00,
2013-11-09 21:31:00,51.1,40.6,29.20,WNW,285,14.0,20.0,67,0.00,,,0.00,WUHU216DAVISVP2,2013-11-10 02:31:00,
2013-11-09 21:34:00,51.0,40.5,29.20,WNW,283,9.0,19.0,67,0.00,,,0.00,WUHU216DAVISVP2,2013-11-10 02:34:00,
2013-11-09 21:35:00,51.0,40.5,29.20,West,275,11.0,19.0,67,0.00,,,0.00,WUHU216DAVISVP2,2013-11-10 02:35:00,
2013-11-09 21:37:00,50.9,40.4,29.20,WNW,298,8.0,19.0,67,0.00,,,0.00,WUHU216DAVISVP2,2013-11-10 02:37:00,
2013-11-09 21:39:00,50.9,40.4,29.20,NW,312,13.0,19.0,67,0.00,,,0.00,WUHU216DAVISVP2,2013-11-10 02:39:00,
2013-11-09 21:40:00,50.9,40.4,29.20,West,272,9.0,19.0,67,0.00,,,0.00,WUHU216DAVISVP2,2013-11-10 02:40:00,
2013-11-09 21:43:00,50.9,40.4,29.20,NW,323,13.0,19.0,67,0.00,,,0.00,WUHU216DAVISVP2,2013-11-10 02:43:00,
2013-11-09 21:44:00,50.9,40.4,29.20,NW,305,10.0,19.0,67,0.00,,,0.00,WUHU216DAVISVP2,2013-11-10 02:44:00,
2013-11-09 21:45:00,50.9,40.4,29.20,WNW,302,9.0,19.0,67,0.00,,,0.00,WUHU216DAVISVP2,2013-11-10 02:45:00,
2013-11-09 21:48:00,50.8,40.3,29.20,WNW,286,9.0,19.0,67,0.00,,,0.00,WUHU216DAVISVP2,2013-11-10 02:48:00,
2013-11-09 21:49:00,50.8,40.3,29.20,NW,312,11.0,21.0,67,0.00,,,0.00,WUHU216DAVISVP2,2013-11-10 02:49:00,
2013-11-09 21:50:00,50.8,40.3,29.20,WNW,299,8.0,21.0,67,0.00,,,0.00,WUHU216DAVISVP2,2013-11-10 02:50:00,
2013-11-09 21:51:00,50.8,40.3,29.20,WNW,297,16.0,21.0,67,0.00,,,0.00,WUHU216DAVISVP2,2013-11-10 02:51:00,
2013-11-09 21:54:00,50.8,40.3,29.20,WNW,289,10.0,21.0,67,0.00,,,0.00,WUHU216DAVISVP2,2013-11-10 02:54:00,
2013-11-09 21:55:00,50.8,40.3,29.20,WNW,299,12.0,21.0,67,0.00,,,0.00,WUHU216DAVISVP2,2013-11-10 02:55:00,
2013-11-09 21:56:00,50.7,40.3,29.20,WNW,285,10.0,21.0,67,0.00,,,0.00,WUHU216DAVISVP2,2013-11-10 02:56:00,
2013-11-09 21:59:00,50.8,40.3,29.20,WNW,287,10.0,21.0,67,0.00,,,0.00,WUHU216DAVISVP2,2013-11-10 02:59:00,
2013-11-09 22:00:00,50.8,40.3,29.20,WNW,285,13.0,21.0,67,0.00,,,0.00,WUHU216DAVISVP2,2013-11-10 03:00:00,
2013-11-09 22:01:00,50.7,40.3,29.20,WNW,297,12.0,21.0,67,0.00,,,0.00,WUHU216DAVISVP2,2013-11-10 03:01:00,
2013-11-09 22:02:00,50.6,40.5,29.20,West,280,12.0,21.0,68,0.00,,,0.00,WUHU216DAVISVP2,2013-11-10 03:02:00,
2013-11-09 22:04:00,50.6,40.5,29.20,WNW,284,9.0,21.0,68,0.00,,,0.00,WUHU216DAVISVP2,2013-11-10 03:04:00,
2013-11-09 22:05:00,50.6,40.5,29.20,NW,305,12.0,21.0,68,0.00,,,0.00,WUHU216DAVISVP2,2013-11-10 03:05:00,
2013-11-09 22:06:00,50.5,40.4,29.20,NW,310,8.0,21.0,68,0.00,,,0.00,WUHU216DAVISVP2,2013-11-10 03:06:00,
2013-11-09 22:07:00,50.5,40.4,29.20,WNW,303,12.0,21.0,68,0.00,,,0.00,WUHU216DAVISVP2,2013-11-10 03:07:00,
2013-11-09 22:09:00,50.5,40.1,29.20,NW,308,14.0,22.0,67,0.00,,,0.00,WUHU216DAVISVP2,2013-11-10 03:09:00,
2013-11-09 22:10:00,50.5,40.1,29.20,WNW,298,11.0,22.0,67,0.00,,,0.00,WUHU216DAVISVP2,2013-11-10 03:10:00,
2013-11-09 22:12:00,50.4,40.0,29.20,NW,314,19.0,22.0,67,0.00,,,0.00,WUHU216DAVISVP2,2013-11-10 03:12:00,
2013-11-09 22:15:00,50.5,40.1,29.20,WNW,302,12.0,23.0,67,0.00,,,0.00,WUHU216DAVISVP2,2013-11-10 03:15:00,
2013-11-09 22:16:00,50.4,40.0,29.20,WNW,301,10.0,23.0,67,0.00,,,0.00,WUHU216DAVISVP2,2013-11-10 03:16:00,
2013-11-09 22:17:00,50.4,40.0,29.20,WNW,303,13.0,23.0,67,0.00,,,0.00,WUHU216DAVISVP2,2013-11-10 03:17:00,
2013-11-09 22:20:00,50.4,40.0,29.20,NW,308,19.0,23.0,67,0.00,,,0.00,WUHU216DAVISVP2,2013-11-10 03:20:00,
2013-11-09 22:21:00,50.4,40.0,29.20,WNW,296,20.0,23.0,67,0.00,,,0.00,WUHU216DAVISVP2,2013-11-10 03:21:00,
2013-11-09 22:22:00,50.5,39.7,29.21,NW,316,13.0,25.0,66,0.00,,,0.00,WUHU216DAVISVP2,2013-11-10 03:22:00,
2013-11-09 22:23:00,50.5,39.7,29.21,NW,316,13.0,25.0,66,0.00,,,0.00,WUHU216DAVISVP2,2013-11-10 03:23:00,
2013-11-09 22:25:00,50.4,40.0,29.21,WNW,298,10.0,25.0,67,0.00,,,0.00,WUHU216DAVISVP2,2013-11-10 03:25:00,
2013-11-09 22:26:00,50.4,40.0,29.21,NW,305,19.0,25.0,67,0.00,,,0.00,WUHU216DAVISVP2,2013-11-10 03:26:00,
2013-11-09 22:28:00,50.2,39.8,29.21,NW,326,13.0,25.0,67,0.00,,,0.00,WUHU216DAVISVP2,2013-11-10 03:28:00,
2013-11-09 22:31:00,50.1,39.7,29.21,WNW,301,13.0,25.0,67,0.00,,,0.00,WUHU216DAVISVP2,2013-11-10 03:31:00,
2013-11-09 22:32:00,50.1,39.7,29.21,WNW,286,10.0,25.0,67,0.00,,,0.00,WUHU216DAVISVP2,2013-11-10 03:32:00,
2013-11-09 22:33:00,50.1,39.7,29.21,NW,310,12.0,25.0,67,0.00,,,0.00,WUHU216DAVISVP2,2013-11-10 03:33:00,
2013-11-09 22:34:00,50.0,39.6,29.21,WNW,296,8.0,25.0,67,0.00,,,0.00,WUHU216DAVISVP2,2013-11-10 03:34:00,
2013-11-09 22:36:00,49.9,39.5,29.21,WNW,303,15.0,25.0,67,0.00,,,0.00,WUHU216DAVISVP2,2013-11-10 03:36:00,
2013-11-09 22:37:00,49.9,39.5,29.21,WNW,296,13.0,25.0,67,0.00,,,0.00,WUHU216DAVISVP2,2013-11-10 03:37:00,
2013-11-09 22:38:00,49.9,39.9,29.21,NW,304,19.0,25.0,68,0.00,,,0.00,WUHU216DAVISVP2,2013-11-10 03:38:00,
2013-11-09 22:39:00,49.8,39.8,29.21,NW,309,12.0,25.0,68,0.00,,,0.00,WUHU216DAVISVP2,2013-11-10 03:39:00,
2013-11-09 22:41:00,49.8,39.8,29.21,WNW,282,11.0,23.0,68,0.00,,,0.00,WUHU216DAVISVP2,2013-11-10 03:41:00,
2013-11-09 22:42:00,49.7,39.7,29.21,WNW,297,14.0,22.0,68,0.00,,,0.00,WUHU216DAVISVP2,2013-11-10 03:42:00,
2013-11-09 22:43:00,49.7,39.7,29.21,WNW,289,21.0,21.0,68,0.00,,,0.00,WUHU216DAVISVP2,2013-11-10 03:43:00,
2013-11-09 22:44:00,49.7,39.7,29.21,WNW,288,12.0,23.0,68,0.00,,,0.00,WUHU216DAVISVP2,2013-11-10 03:44:00,
2013-11-09 22:46:00,49.6,39.6,29.21,WNW,287,12.0,23.0,68,0.00,,,0.00,WUHU216DAVISVP2,2013-11-10 03:46:00,
2013-11-09 22:47:00,49.6,39.6,29.21,NW,307,16.0,23.0,68,0.00,,,0.00,WUHU216DAVISVP2,2013-11-10 03:47:00,
2013-11-09 22:49:00,49.6,39.6,29.21,WNW,299,14.0,23.0,68,0.00,,,0.00,WUHU216DAVISVP2,2013-11-10 03:49:00,
2013-11-09 22:51:00,49.5,39.5,29.21,NW,311,14.0,23.0,68,0.00,,,0.00,WUHU216DAVISVP2,2013-11-10 03:51:00,
2013-11-09 22:52:00,49.5,39.5,29.21,WNW,291,9.0,23.0,68,0.00,,,0.00,WUHU216DAVISVP2,2013-11-10 03:52:00,
2013-11-09 22:53:00,49.4,39.4,29.21,NW,309,12.0,23.0,68,0.00,,,0.00,WUHU216DAVISVP2,2013-11-10 03:53:00,
2013-11-09 22:54:00,49.4,39.4,29.22,NW,304,14.0,23.0,68,0.00,,,0.00,WUHU216DAVISVP2,2013-11-10 03:54:00,
2013-11-09 22:56:00,49.4,39.4,29.22,WNW,293,11.0,23.0,68,0.00,,,0.00,WUHU216DAVISVP2,2013-11-10 03:56:00,
2013-11-09 22:57:00,49.3,39.3,29.22,WNW,296,11.0,23.0,68,0.00,,,0.00,WUHU216DAVISVP2,2013-11-10 03:57:00,
2013-11-09 22:59:00,49.2,39.2,29.22,NW,305,9.0,23.0,68,0.00,,,0.00,WUHU216DAVISVP2,2013-11-10 03:59:00,
2013-11-09 23:00:00,49.2,39.2,29.22,WNW,293,16.0,23.0,68,0.00,,,0.00,WUHU216DAVISVP2,2013-11-10 04:00:00,
2013-11-09 23:01:00,49.1,39.5,29.22,WNW,295,6.0,23.0,69,0.00,,,0.00,WUHU216DAVISVP2,2013-11-10 04:01:00,
2013-11-09 23:02:00,49.0,39.4,29.22,WNW,291,12.0,23.0,69,0.00,,,0.00,WUHU216DAVISVP2,2013-11-10 04:02:00,
2013-11-09 23:03:00,49.0,39.4,29.22,WNW,299,12.0,22.0,69,0.00,,,0.00,WUHU216DAVISVP2,2013-11-10 04:03:00,
2013-11-09 23:04:00,49.0,39.4,29.22,WNW,294,16.0,22.0,69,0.00,,,0.00,WUHU216DAVISVP2,2013-11-10 04:04:00,
2013-11-09 23:05:00,49.0,39.4,29.22,West,278,20.0,22.0,69,0.00,,,0.00,WUHU216DAVISVP2,2013-11-10 04:05:00,
2013-11-09 23:06:00,49.0,39.4,29.22,WNW,301,11.0,22.0,69,0.00,,,0.00,WUHU216DAVISVP2,2013-11-10 04:06:00,
2013-11-09 23:08:00,49.0,39.4,29.22,NW,310,13.0,22.0,69,0.00,,,0.00,WUHU216DAVISVP2,2013-11-10 04:08:00,
2013-11-09 23:09:00,48.8,39.2,29.22,WNW,299,12.0,22.0,69,0.00,,,0.00,WUHU216DAVISVP2,2013-11-10 04:09:00,
2013-11-09 23:10:00,48.8,39.2,29.22,WNW,291,12.0,22.0,69,0.00,,,0.00,WUHU216DAVISVP2,2013-11-10 04:10:00,
2013-11-09 23:11:00,48.8,39.2,29.22,WNW,299,16.0,25.0,69,0.00,,,0.00,WUHU216DAVISVP2,2013-11-10 04:11:00,
2013-11-09 23:13:00,48.8,39.2,29.22,WNW,301,11.0,25.0,69,0.00,,,0.00,WUHU216DAVISVP2,2013-11-10 04:13:00,
2013-11-09 23:14:00,48.7,39.1,29.22,NW,315,14.0,25.0,69,0.00,,,0.00,WUHU216DAVISVP2,2013-11-10 04:14:00,
2013-11-09 23:15:00,48.7,39.1,29.22,WNW,301,11.0,25.0,69,0.00,,,0.00,WUHU216DAVISVP2,2013-11-10 04:15:00,
2013-11-09 23:16:00,48.7,39.1,29.22,NW,323,13.0,25.0,69,0.00,,,0.00,WUHU216DAVISVP2,2013-11-10 04:16:00,
2013-11-09 23:18:00,48.7,39.1,29.22,WNW,287,10.0,25.0,69,0.00,,,0.00,WUHU216DAVISVP2,2013-11-10 04:18:00,
2013-11-09 23:19:00,48.7,39.1,29.22,NW,318,15.0,25.0,69,0.00,,,0.00,WUHU216DAVISVP2,2013-11-10 04:19:00,
2013-11-09 23:20:00,48.6,39.0,29.22,WNW,293,12.0,25.0,69,0.00,,,0.00,WUHU216DAVISVP2,2013-11-10 04:20:00,
2013-11-09 23:21:00,48.6,39.0,29.22,NW,308,10.0,25.0,69,0.00,,,0.00,WUHU216DAVISVP2,2013-11-10 04:21:00,
2013-11-09 23:23:00,48.5,38.9,29.22,NW,314,8.0,25.0,69,0.00,,,0.00,WUHU216DAVISVP2,2013-11-10 04:23:00,
2013-11-09 23:24:00,48.5,38.9,29.22,NW,308,9.0,25.0,69,0.00,,,0.00,WUHU216DAVISVP2,2013-11-10 04:24:00,
2013-11-09 23:25:00,48.5,38.9,29.22,WNW,298,11.0,25.0,69,0.00,,,0.00,WUHU216DAVISVP2,2013-11-10 04:25:00,
2013-11-09 23:26:00,48.4,39.2,29.22,WNW,300,12.0,25.0,70,0.00,,,0.00,WUHU216DAVISVP2,2013-11-10 04:26:00,
2013-11-09 23:28:00,48.3,39.1,29.22,NW,310,12.0,25.0,70,0.00,,,0.00,WUHU216DAVISVP2,2013-11-10 04:28:00,
2013-11-09 23:30:00,48.3,39.1,29.22,WNW,297,9.0,24.0,70,0.00,,,0.00,WUHU216DAVISVP2,2013-11-10 04:30:00,
2013-11-09 23:31:00,48.3,39.1,29.22,NW,310,15.0,22.0,70,0.00,,,0.00,WUHU216DAVISVP2,2013-11-10 04:31:00,
2013-11-09 23:33:00,48.3,39.1,29.22,WNW,283,12.0,21.0,70,0.00,,,0.00,WUHU216DAVISVP2,2013-11-10 04:33:00,
2013-11-09 23:35:00,48.2,39.0,29.22,NW,307,9.0,21.0,70,0.00,,,0.00,WUHU216DAVISVP2,2013-11-10 04:35:00,
2013-11-09 23:36:00,48.2,39.0,29.22,WNW,291,9.0,21.0,70,0.00,,,0.00,WUHU216DAVISVP2,2013-11-10 04:36:00,
2013-11-09 23:38:00,48.2,39.0,29.22,NW,305,13.0,20.0,70,0.00,,,0.00,WUHU216DAVISVP2,2013-11-10 04:38:00,
2013-11-09 23:40:00,48.1,38.9,29.22,NW,309,14.0,20.0,70,0.00,,,0.00,WUHU216DAVISVP2,2013-11-10 04:40:00,
2013-11-09 23:41:00,48.1,38.9,29.22,WNW,289,15.0,20.0,70,0.00,,,0.00,WUHU216DAVISVP2,2013-11-10 04:41:00,
2013-11-09 23:42:00,48.2,38.6,29.22,WNW,297,9.0,22.0,69,0.00,,,0.00,WUHU216DAVISVP2,2013-11-10 04:42:00,
2013-11-09 23:44:00,48.2,38.6,29.22,NW,304,11.0,22.0,69,0.00,,,0.00,WUHU216DAVISVP2,2013-11-10 04:44:00,
2013-11-09 23:45:00,48.1,38.5,29.22,WNW,291,7.0,22.0,69,0.00,,,0.00,WUHU216DAVISVP2,2013-11-10 04:45:00,
2013-11-09 23:46:00,48.1,38.5,29.22,NW,317,13.0,22.0,69,0.00,,,0.00,WUHU216DAVISVP2,2013-11-10 04:46:00,
2013-11-09 23:47:00,48.1,38.5,29.22,WNW,289,11.0,22.0,69,0.00,,,0.00,WUHU216DAVISVP2,2013-11-10 04:47:00,
2013-11-09 23:49:00,48.1,38.5,29.22,WNW,297,11.0,22.0,69,0.00,,,0.00,WUHU216DAVISVP2,2013-11-10 04:49:00,
2013-11-09 23:50:00,48.0,38.4,29.22,NW,324,9.0,22.0,69,0.00,,,0.00,WUHU216DAVISVP2,2013-11-10 04:50:00,
2013-11-09 23:51:00,48.0,38.4,29.22,WNW,285,15.0,22.0,69,0.00,,,0.00,WUHU216DAVISVP2,2013-11-10 04:51:00,
2013-11-09 23:52:00,48.0,38.4,29.22,NW,311,9.0,22.0,69,0.00,,,0.00,WUHU216DAVISVP2,2013-11-10 04:52:00,
2013-11-09 23:53:00,48.0,38.4,29.22,NW,320,9.0,22.0,69,0.00,,,0.00,WUHU216DAVISVP2,2013-11-10 04:53:00,
2013-11-09 23:54:00,47.9,38.3,29.22,WNW,299,8.0,22.0,69,0.00,,,0.00,WUHU216DAVISVP2,2013-11-10 04:54:00,
2013-11-09 23:55:00,47.9,38.7,29.22,WNW,303,12.0,22.0,70,0.00,,,0.00,WUHU216DAVISVP2,2013-11-10 04:55:00,
2013-11-09 23:56:00,47.9,38.7,29.22,WNW,284,10.0,22.0,70,0.00,,,0.00,WUHU216DAVISVP2,2013-11-10 04:56:00,
2013-11-09 23:57:00,47.9,38.7,29.22,WNW,303,9.0,22.0,70,0.00,,,0.00,WUHU216DAVISVP2,2013-11-10 04:57:00,
2013-11-09 23:58:00,47.8,38.6,29.22,West,278,8.0,22.0,70,0.00,,,0.00,WUHU216DAVISVP2,2013-11-10 04:58:00,